Wetterdaten: Mittwoch, 29.05.2013
Datum Zeit Temp. Aussen +5cm Feuchte Auss Luftdruck Regen Sonnenschein Regendauer UV Solar Windben
29.05.2013 00:00 14,6 C 12,9 C 85 % 1000,3 hPa 0,0 l/m 0 min 2 min 0,0 UV-I 0 W/m 0,0 km/h (0 Bft)
29.05.2013 00:02 14,5 C 12,9 C 85 % 1000,3 hPa 0,0 l/m 0 min 0 min 0,0 UV-I 0 W/m 0,0 km/h (0 Bft)
29.05.2013 00:06 14,4 C 12,9 C 86 % 1000,3 hPa 0,0 l/m 0 min 0 min 0,0 UV-I 0 W/m 10,3 km/h (2 Bft)
29.05.2013 00:08 14,4 C 12,9 C 86 % 1000,3 hPa 0,0 l/m 0 min 0 min 0,0 UV-I 0 W/m 0,0 km/h (0 Bft)
29.05.2013 00:10 14,4 C 12,9 C 86 % 1000,3 hPa 0,0 l/m 0 min 0 min 0,0 UV-I 0 W/m 2,6 km/h (1 Bft)
29.05.2013 00:12 14,3 C 12,9 C 86 % 1000,3 hPa 0,0 l/m 0 min 0 min 0,0 UV-I 0 W/m 0,0 km/h (0 Bft)
29.05.2013 00:14 14,3 C 12,9 C 86 % 1000,3 hPa 0,0 l/m 0 min 0 min 0,0 UV-I 0 W/m 10,3 km/h (2 Bft)
29.05.2013 00:16 14,3 C 12,9 C 87 % 1000,3 hPa 0,0 l/m 0 min 0 min 0,0 UV-I 0 W/m 5,1 km/h (1 Bft)
29.05.2013 00:18 14,3 C 12,9 C 87 % 1000,4 hPa 0,0 l/m 0 min 2 min 0,0 UV-I 0 W/m 10,3 km/h (2 Bft)
29.05.2013 00:20 14,2 C 12,9 C 87 % 1000,3 hPa 0,0 l/m 0 min 0 min 0,0 UV-I 0 W/m 10,3 km/h (2 Bft)
29.05.2013 00:22 14,2 C 12,9 C 87 % 1000,3 hPa 0,0 l/m 0 min 2 min 0,0 UV-I 0 W/m 2,6 km/h (1 Bft)
29.05.2013 00:24 14,2 C 12,9 C 88 % 1000,3 hPa 0,0 l/m 0 min 0 min 0,0 UV-I 0 W/m 0,0 km/h (0 Bft)
29.05.2013 00:26 14,1 C 12,9 C 88 % 1000,3 hPa 0,0 l/m 0 min 2 min 0,0 UV-I 0 W/m 7,7 km/h (2 Bft)
29.05.2013 00:28 14,1 C 12,9 C 88 % 1000,2 hPa 0,0 l/m 0 min 2 min 0,0 UV-I 0 W/m 2,6 km/h (1 Bft)
29.05.2013 00:30 14,1 C 12,9 C 88 % 1000,3 hPa 0,0 l/m 0 min 0 min 0,0 UV-I 0 W/m 0,0 km/h (0 Bft)
29.05.2013 00:32 14,0 C 12,9 C 89 % 1000,3 hPa 0,0 l/m 0 min 0 min 0,0 UV-I 0 W/m 5,1 km/h (1 Bft)
29.05.2013 00:34 14,0 C 12,9 C 89 % 1000,3 hPa 0,0 l/m 0 min 0 min 0,0 UV-I 0 W/m 2,6 km/h (1 Bft)
29.05.2013 00:36 14,0 C 12,9 C 89 % 1000,3 hPa 0,0 l/m 0 min 0 min 0,0 UV-I 0 W/m 10,3 km/h (2 Bft)
29.05.2013 00:38 14,0 C 12,9 C 89 % 1000,3 hPa 0,0 l/m 0 min 0 min 0,0 UV-I 0 W/m 0,0 km/h (0 Bft)
29.05.2013 00:40 14,0 C 12,9 C 89 % 1000,3 hPa 0,0 l/m 0 min 0 min 0,0 UV-I 0 W/m 0,0 km/h (0 Bft)
29.05.2013 00:42 14,0 C 12,9 C 89 % 1000,3 hPa 0,0 l/m 0 min 0 min 0,0 UV-I 0 W/m 0,0 km/h (0 Bft)
29.05.2013 00:44 14,0 C 12,9 C 90 % 1000,3 hPa 0,0 l/m 0 min 0 min 0,0 UV-I 0 W/m 5,1 km/h (1 Bft)
29.05.2013 00:46 14,0 C 12,9 C 90 % 1000,4 hPa 0,0 l/m 0 min 0 min 0,0 UV-I 0 W/m 5,1 km/h (1 Bft)
29.05.2013 00:48 14,0 C 12,9 C 90 % 1000,4 hPa 0,0 l/m 0 min 0 min 0,0 UV-I 0 W/m 0,0 km/h (0 Bft)
29.05.2013 00:50 14,0 C 12,9 C 90 % 1000,4 hPa 0,0 l/m 0 min 0 min 0,0 UV-I 0 W/m 0,0 km/h (0 Bft)
29.05.2013 00:52 14,0 C 12,9 C 90 % 1000,3 hPa 0,0 l/m 0 min 0 min 0,0 UV-I 0 W/m 10,3 km/h (2 Bft)
29.05.2013 00:54 13,9 C 12,9 C 91 % 1000,3 hPa 0,0 l/m 0 min 0 min 0,0 UV-I 0 W/m 15,4 km/h (3 Bft)
29.05.2013 00:56 13,8 C 12,9 C 90 % 1000,3 hPa 0,0 l/m 0 min 0 min 0,0 UV-I 0 W/m 15,4 km/h (3 Bft)
29.05.2013 00:58 13,8 C 12,3 C 90 % 1000,3 hPa 0,0 l/m 0 min 2 min 0,0 UV-I 0 W/m 7,7 km/h (2 Bft)
29.05.2013 01:00 13,7 C 12,3 C 90 % 1000,3 hPa 0,0 l/m 0 min 0 min 0,0 UV-I 0 W/m 10,3 km/h (2 Bft)
29.05.2013 01:02 13,6 C 12,3 C 89 % 1000,3 hPa 0,0 l/m 0 min 0 min 0,0 UV-I 0 W/m 5,1 km/h (1 Bft)
29.05.2013 01:04 13,5 C 12,3 C 89 % 1000,3 hPa 0,0 l/m 0 min 0 min 0,0 UV-I 0 W/m 5,1 km/h (1 Bft)
29.05.2013 01:06 13,5 C 12,3 C 89 % 1000,4 hPa 0,0 l/m 0 min 0 min 0,0 UV-I 0 W/m 10,3 km/h (2 Bft)
29.05.2013 01:08 13,4 C 12,3 C 89 % 1000,3 hPa 0,0 l/m 0 min 0 min 0,0 UV-I 0 W/m 20,6 km/h (4 Bft)
29.05.2013 01:10 13,4 C 12,3 C 89 % 1000,3 hPa 0,0 l/m 0 min 0 min 0,0 UV-I 0 W/m 10,3 km/h (2 Bft)
29.05.2013 01:12 13,3 C 12,3 C 89 % 1000,4 hPa 0,0 l/m 0 min 0 min 0,0 UV-I 0 W/m 2,6 km/h (1 Bft)
29.05.2013 01:14 13,3 C 12,3 C 89 % 1000,3 hPa 0,0 l/m 0 min 0 min 0,0 UV-I 0 W/m 12,9 km/h (3 Bft)
29.05.2013 01:16 13,3 C 12,3 C 89 % 1000,3 hPa 0,0 l/m 0 min 0 min 0,0 UV-I 0 W/m 5,1 km/h (1 Bft)
29.05.2013 01:18 13,2 C 12,3 C 89 % 1000,2 hPa 0,0 l/m 0 min 0 min 0,0 UV-I 0 W/m 2,6 km/h (1 Bft)
29.05.2013 01:20 13,2 C 11,8 C 89 % 1000,3 hPa 0,0 l/m 0 min 0 min 0,0 UV-I 0 W/m 0,0 km/h (0 Bft)
29.05.2013 01:22 13,2 C 12,3 C 89 % 1000,3 hPa 0,0 l/m 0 min 0 min 0,0 UV-I 0 W/m 5,1 km/h (1 Bft)
29.05.2013 01:24 13,1 C 12,3 C 89 % 1000,4 hPa 0,0 l/m 0 min 0 min 0,0 UV-I 0 W/m 5,1 km/h (1 Bft)
29.05.2013 01:26 13,1 C 11,8 C 89 % 1000,4 hPa 0,0 l/m 0 min 0 min 0,0 UV-I 0 W/m 10,3 km/h (2 Bft)
29.05.2013 01:28 13,1 C 11,8 C 89 % 1000,4 hPa 0,0 l/m 0 min 0 min 0,0 UV-I 0 W/m 0,0 km/h (0 Bft)
29.05.2013 01:30 13,1 C 11,8 C 90 % 1000,4 hPa 0,0 l/m 0 min 0 min 0,0 UV-I 0 W/m 7,7 km/h (2 Bft)
29.05.2013 01:32 13,0 C 11,8 C 90 % 1000,4 hPa 0,0 l/m 0 min 0 min 0,0 UV-I 0 W/m 2,6 km/h (1 Bft)
29.05.2013 01:34 13,0 C 11,8 C 90 % 1000,4 hPa 0,0 l/m 0 min 0 min 0,0 UV-I 0 W/m 12,9 km/h (3 Bft)
29.05.2013 01:36 12,9 C 11,8 C 89 % 1000,4 hPa 0,0 l/m 0 min 0 min 0,0 UV-I 0 W/m 0,0 km/h (0 Bft)
29.05.2013 01:38 12,9 C 11,8 C 89 % 1000,5 hPa 0,0 l/m 0 min 0 min 0,0 UV-I 0 W/m 0,0 km/h (0 Bft)
29.05.2013 01:40 12,9 C 11,8 C 89 % 1000,5 hPa 0,0 l/m 0 min 0 min 0,0 UV-I 0 W/m 7,7 km/h (2 Bft)
29.05.2013 01:42 12,9 C 11,8 C 89 % 1000,3 hPa 0,0 l/m 0 min 0 min 0,0 UV-I 0 W/m 10,3 km/h (2 Bft)
29.05.2013 01:44 12,9 C 11,8 C 89 % 1000,4 hPa 0,0 l/m 0 min 0 min 0,0 UV-I 0 W/m 7,7 km/h (2 Bft)
29.05.2013 01:46 12,9 C 11,8 C 89 % 1000,3 hPa 0,0 l/m 0 min 0 min 0,0 UV-I 0 W/m 5,1 km/h (1 Bft)
29.05.2013 01:48 12,8 C 11,8 C 90 % 1000,3 hPa 0,0 l/m 0 min 0 min 0,0 UV-I 0 W/m 5,1 km/h (1 Bft)
29.05.2013 01:50 12,8 C 11,8 C 90 % 1000,4 hPa 0,0 l/m 0 min 0 min 0,0 UV-I 0 W/m 7,7 km/h (2 Bft)
29.05.2013 01:52 12,8 C 11,8 C 90 % 1000,3 hPa 0,0 l/m 0 min 0 min 0,0 UV-I 0 W/m 12,9 km/h (3 Bft)
29.05.2013 01:54 12,8 C 11,8 C 90 % 1000,4 hPa 0,0 l/m 0 min 0 min 0,0 UV-I 0 W/m 0,0 km/h (0 Bft)
29.05.2013 01:56 12,8 C 11,8 C 90 % 1000,4 hPa 0,0 l/m 0 min 0 min 0,0 UV-I 0 W/m 0,0 km/h (0 Bft)
29.05.2013 01:58 12,8 C 11,8 C 90 % 1000,4 hPa 0,0 l/m 0 min 0 min 0,0 UV-I 0 W/m 15,4 km/h (3 Bft)
29.05.2013 02:00 12,8 C 11,8 C 90 % 1000,3 hPa 0,0 l/m 0 min 0 min 0,0 UV-I 0 W/m 2,6 km/h (1 Bft)
29.05.2013 02:02 12,8 C 11,8 C 90 % 1000,3 hPa 0,0 l/m 0 min 0 min 0,0 UV-I 0 W/m 15,4 km/h (3 Bft)
29.05.2013 02:04 12,7 C 11,8 C 90 % 1000,3 hPa 0,0 l/m 0 min 0 min 0,0 UV-I 0 W/m 12,9 km/h (3 Bft)
29.05.2013 02:06 12,7 C 11,8 C 90 % 1000,4 hPa 0,0 l/m 0 min 0 min 0,0 UV-I 0 W/m 15,4 km/h (3 Bft)
29.05.2013 02:08 12,7 C 11,8 C 90 % 1000,4 hPa 0,0 l/m 0 min 0 min 0,0 UV-I 0 W/m 7,7 km/h (2 Bft)
29.05.2013 02:10 12,7 C 11,8 C 90 % 1000,4 hPa 0,0 l/m 0 min 0 min 0,0 UV-I 0 W/m 20,6 km/h (4 Bft)
29.05.2013 02:12 12,7 C 11,8 C 90 % 1000,4 hPa 0,0 l/m 0 min 0 min 0,0 UV-I 0 W/m 10,3 km/h (2 Bft)
29.05.2013 02:14 12,7 C 11,8 C 90 % 1000,3 hPa 0,0 l/m 0 min 0 min 0,0 UV-I 0 W/m 10,3 km/h (2 Bft)
29.05.2013 02:16 12,7 C 11,8 C 90 % 1000,4 hPa 0,0 l/m 0 min 0 min 0,0 UV-I 0 W/m 12,9 km/h (3 Bft)
29.05.2013 02:18 12,7 C 11,8 C 90 % 1000,3 hPa 0,0 l/m 0 min 2 min 0,0 UV-I 0 W/m 15,4 km/h (3 Bft)
29.05.2013 02:20 12,6 C 11,8 C 90 % 1000,4 hPa 0,0 l/m 0 min 2 min 0,0 UV-I 0 W/m 7,7 km/h (2 Bft)
29.05.2013 02:22 12,7 C 11,8 C 90 % 1000,4 hPa 0,0 l/m 0 min 2 min 0,0 UV-I 0 W/m 2,6 km/h (1 Bft)
29.05.2013 02:24 12,7 C 11,8 C 91 % 1000,4 hPa 0,0 l/m 0 min 0 min 0,0 UV-I 0 W/m 12,9 km/h (3 Bft)
29.05.2013 02:26 12,6 C 11,8 C 91 % 1000,3 hPa 0,0 l/m 0 min 0 min 0,0 UV-I 0 W/m 5,1 km/h (1 Bft)
29.05.2013 02:28 12,6 C 11,8 C 91 % 1000,3 hPa 0,0 l/m 0 min 0 min 0,0 UV-I 0 W/m 5,1 km/h (1 Bft)
29.05.2013 02:30 12,6 C 11,8 C 91 % 1000,3 hPa 0,0 l/m 0 min 0 min 0,0 UV-I 0 W/m 10,3 km/h (2 Bft)
29.05.2013 02:32 12,6 C 11,2 C 91 % 1000,3 hPa 0,0 l/m 0 min 0 min 0,0 UV-I 0 W/m 5,1 km/h (1 Bft)
29.05.2013 02:34 12,6 C 11,2 C 91 % 1000,2 hPa 0,0 l/m 0 min 0 min 0,0 UV-I 0 W/m 10,3 km/h (2 Bft)
29.05.2013 02:36 12,6 C 11,2 C 92 % 1000,1 hPa 0,0 l/m 0 min 0 min 0,0 UV-I 0 W/m 5,1 km/h (1 Bft)
29.05.2013 02:38 12,6 C 11,2 C 92 % 1000,2 hPa 0,0 l/m 0 min 0 min 0,0 UV-I 0 W/m 7,7 km/h (2 Bft)
29.05.2013 02:40 12,6 C 11,2 C 92 % 1000,2 hPa 0,0 l/m 0 min 0 min 0,0 UV-I 0 W/m 7,7 km/h (2 Bft)
29.05.2013 02:42 12,5 C 11,2 C 92 % 1000,2 hPa 0,0 l/m 0 min 0 min 0,0 UV-I 0 W/m 7,7 km/h (2 Bft)
29.05.2013 02:44 12,5 C 11,2 C 92 % 1000,2 hPa 0,0 l/m 0 min 0 min 0,0 UV-I 0 W/m 2,6 km/h (1 Bft)
29.05.2013 02:46 12,5 C 11,2 C 92 % 1000,2 hPa 0,0 l/m 0 min 0 min 0,0 UV-I 0 W/m 7,7 km/h (2 Bft)
29.05.2013 02:48 12,4 C 11,2 C 92 % 1000,2 hPa 0,0 l/m 0 min 0 min 0,0 UV-I 0 W/m 15,4 km/h (3 Bft)
29.05.2013 02:50 12,4 C 11,2 C 92 % 1000,1 hPa 0,0 l/m 0 min 0 min 0,0 UV-I 0 W/m 2,6 km/h (1 Bft)
29.05.2013 02:52 12,4 C 11,2 C 92 % 1000,1 hPa 0,0 l/m 0 min 0 min 0,0 UV-I 0 W/m 10,3 km/h (2 Bft)
29.05.2013 02:54 12,4 C 11,2 C 92 % 1000,1 hPa 0,0 l/m 0 min 0 min 0,0 UV-I 0 W/m 18,0 km/h (3 Bft)
29.05.2013 02:56 12,4 C 11,2 C 92 % 1000,1 hPa 0,0 l/m 0 min 0 min 0,0 UV-I 0 W/m 10,3 km/h (2 Bft)
29.05.2013 02:58 12,4 C 11,2 C 92 % 1000,1 hPa 0,0 l/m 0 min 0 min 0,0 UV-I 0 W/m 20,6 km/h (4 Bft)
29.05.2013 03:00 12,3 C 11,2 C 92 % 1000,0 hPa 0,0 l/m 0 min 0 min 0,0 UV-I 0 W/m 15,4 km/h (3 Bft)
29.05.2013 03:02 12,3 C 11,2 C 92 % 1000,1 hPa 0,0 l/m 0 min 0 min 0,0 UV-I 0 W/m 15,4 km/h (3 Bft)
29.05.2013 03:04 12,3 C 11,2 C 92 % 1000,2 hPa 0,0 l/m 0 min 0 min 0,0 UV-I 0 W/m 15,4 km/h (3 Bft)
29.05.2013 03:06 12,3 C 11,2 C 92 % 1000,1 hPa 0,0 l/m 0 min 0 min 0,0 UV-I 0 W/m 12,9 km/h (3 Bft)
29.05.2013 03:08 12,2 C 11,2 C 92 % 1000,0 hPa 0,0 l/m 0 min 0 min 0,0 UV-I 0 W/m 5,1 km/h (1 Bft)
29.05.2013 03:10 12,2 C 11,2 C 92 % 1000,0 hPa 0,0 l/m 0 min 0 min 0,0 UV-I 0 W/m 2,6 km/h (1 Bft)
29.05.2013 03:12 12,2 C 11,2 C 92 % 1000,0 hPa 0,0 l/m 0 min 0 min 0,0 UV-I 0 W/m 15,4 km/h (3 Bft)
29.05.2013 03:14 12,2 C 11,2 C 92 % 1000,0 hPa 0,0 l/m 0 min 0 min 0,0 UV-I 0 W/m 18,0 km/h (3 Bft)
29.05.2013 03:16 12,2 C 11,2 C 92 % 1000,0 hPa 0,0 l/m 0 min 2 min 0,0 UV-I 0 W/m 7,7 km/h (2 Bft)
29.05.2013 03:18 12,2 C 11,2 C 92 % 1000,0 hPa 0,0 l/m 0 min 2 min 0,0 UV-I 0 W/m 5,1 km/h (1 Bft)
29.05.2013 03:20 12,2 C 11,2 C 92 % 999,9 hPa 0,0 l/m 0 min 2 min 0,0 UV-I 0 W/m 15,4 km/h (3 Bft)
29.05.2013 03:22 12,2 C 11,2 C 93 % 1000,0 hPa 0,0 l/m 0 min 2 min 0,0 UV-I 0 W/m 7,7 km/h (2 Bft)
29.05.2013 03:24 12,1 C 11,2 C 93 % 999,9 hPa 0,0 l/m 0 min 0 min 0,0 UV-I 0 W/m 7,7 km/h (2 Bft)
29.05.2013 03:26 12,1 C 11,2 C 93 % 999,9 hPa 0,0 l/m 0 min 2 min 0,0 UV-I 0 W/m 12,9 km/h (3 Bft)
29.05.2013 03:28 12,1 C 11,2 C 93 % 999,9 hPa 0,0 l/m 0 min 2 min 0,0 UV-I 0 W/m 7,7 km/h (2 Bft)
29.05.2013 03:30 12,1 C 11,2 C 93 % 999,8 hPa 0,0 l/m 0 min 2 min 0,0 UV-I 0 W/m 7,7 km/h (2 Bft)
29.05.2013 03:32 12,1 C 10,7 C 93 % 999,8 hPa 0,0 l/m 0 min 2 min 0,0 UV-I 0 W/m 10,3 km/h (2 Bft)
29.05.2013 03:34 12,1 C 10,7 C 93 % 999,8 hPa 0,0 l/m 0 min 0 min 0,0 UV-I 0 W/m 7,7 km/h (2 Bft)
29.05.2013 03:36 12,1 C 10,7 C 93 % 999,8 hPa 0,0 l/m 0 min 0 min 0,0 UV-I 0 W/m 12,9 km/h (3 Bft)
29.05.2013 03:38 12,0 C 10,7 C 93 % 999,7 hPa 0,0 l/m 0 min 0 min 0,0 UV-I 0 W/m 18,0 km/h (3 Bft)
29.05.2013 03:40 12,0 C 10,7 C 93 % 999,7 hPa 0,0 l/m 0 min 0 min 0,0 UV-I 0 W/m 5,1 km/h (1 Bft)
29.05.2013 03:42 12,0 C 10,7 C 93 % 999,8 hPa 0,0 l/m 0 min 0 min 0,0 UV-I 0 W/m 2,6 km/h (1 Bft)
29.05.2013 03:44 11,9 C 10,7 C 93 % 999,7 hPa 0,0 l/m 0 min 0 min 0,0 UV-I 0 W/m 12,9 km/h (3 Bft)
29.05.2013 03:46 11,9 C 10,7 C 94 % 999,7 hPa 0,0 l/m 0 min 0 min 0,0 UV-I 0 W/m 10,3 km/h (2 Bft)
29.05.2013 03:48 11,9 C 10,7 C 94 % 999,7 hPa 0,0 l/m 0 min 0 min 0,0 UV-I 0 W/m 10,3 km/h (2 Bft)
29.05.2013 03:50 11,9 C 10,7 C 94 % 999,7 hPa 0,0 l/m 0 min 0 min 0,0 UV-I 0 W/m 7,7 km/h (2 Bft)
29.05.2013 03:52 11,8 C 10,7 C 94 % 999,7 hPa 0,0 l/m 0 min 0 min 0,0 UV-I 0 W/m 10,3 km/h (2 Bft)
29.05.2013 03:54 11,8 C 10,7 C 94 % 999,7 hPa 0,0 l/m 0 min 0 min 0,0 UV-I 0 W/m 2,6 km/h (1 Bft)
29.05.2013 03:56 11,8 C 10,7 C 94 % 999,7 hPa 0,0 l/m 0 min 0 min 0,0 UV-I 0 W/m 10,3 km/h (2 Bft)
29.05.2013 03:58 11,8 C 10,7 C 94 % 999,7 hPa 0,0 l/m 0 min 0 min 0,0 UV-I 0 W/m 15,4 km/h (3 Bft)
29.05.2013 04:00 11,8 C 10,7 C 94 % 999,8 hPa 0,0 l/m 0 min 0 min 0,0 UV-I 0 W/m 18,0 km/h (3 Bft)
29.05.2013 04:02 11,7 C 10,7 C 94 % 999,7 hPa 0,0 l/m 0 min 0 min 0,0 UV-I 0 W/m 5,1 km/h (1 Bft)
29.05.2013 04:08 11,6 C 10,7 C 94 % 999,7 hPa 0,0 l/m 0 min 0 min 0,0 UV-I 0 W/m 15,4 km/h (3 Bft)
29.05.2013 04:10 11,6 C 10,7 C 94 % 999,7 hPa 0,0 l/m 0 min 0 min 0,0 UV-I 0 W/m 15,4 km/h (3 Bft)
29.05.2013 04:12 11,6 C 10,7 C 94 % 999,7 hPa 0,0 l/m 0 min 0 min 0,0 UV-I 0 W/m 10,3 km/h (2 Bft)
29.05.2013 04:14 11,6 C 10,7 C 94 % 999,6 hPa 0,0 l/m 0 min 0 min 0,0 UV-I 0 W/m 20,6 km/h (4 Bft)
29.05.2013 04:16 11,5 C 10,7 C 94 % 999,7 hPa 0,0 l/m 0 min 0 min 0,0 UV-I 0 W/m 7,7 km/h (2 Bft)
29.05.2013 04:18 11,5 C 10,7 C 94 % 999,7 hPa 0,0 l/m 0 min 0 min 0,0 UV-I 0 W/m 15,4 km/h (3 Bft)
29.05.2013 04:20 11,4 C 10,7 C 94 % 999,7 hPa 0,0 l/m 0 min 0 min 0,0 UV-I 0 W/m 12,9 km/h (3 Bft)
29.05.2013 04:22 11,4 C 10,1 C 94 % 999,6 hPa 0,0 l/m 0 min 0 min 0,0 UV-I 0 W/m 15,4 km/h (3 Bft)
29.05.2013 04:24 11,4 C 10,1 C 94 % 999,7 hPa 0,0 l/m 0 min 0 min 0,0 UV-I 0 W/m 15,4 km/h (3 Bft)
29.05.2013 04:26 11,4 C 10,1 C 94 % 999,6 hPa 0,0 l/m 0 min 0 min 0,0 UV-I 0 W/m 10,3 km/h (2 Bft)
29.05.2013 04:28 11,4 C 10,1 C 94 % 999,7 hPa 0,0 l/m 0 min 0 min 0,0 UV-I 0 W/m 2,6 km/h (1 Bft)
29.05.2013 04:30 11,3 C 10,1 C 94 % 999,6 hPa 0,0 l/m 0 min 0 min 0,0 UV-I 0 W/m 15,4 km/h (3 Bft)
29.05.2013 04:32 11,3 C 10,1 C 94 % 999,6 hPa 0,0 l/m 0 min 0 min 0,0 UV-I 0 W/m 12,9 km/h (3 Bft)
29.05.2013 04:34 11,3 C 10,1 C 94 % 999,7 hPa 0,0 l/m 0 min 0 min 0,0 UV-I 0 W/m 10,3 km/h (2 Bft)
29.05.2013 04:36 11,3 C 10,1 C 94 % 999,6 hPa 0,0 l/m 0 min 0 min 0,0 UV-I 0 W/m 2,6 km/h (1 Bft)
29.05.2013 04:38 11,3 C 10,1 C 94 % 999,6 hPa 0,0 l/m 0 min 0 min 0,0 UV-I 0 W/m 10,3 km/h (2 Bft)
29.05.2013 04:40 11,3 C 10,7 C 95 % 999,7 hPa 0,0 l/m 0 min 0 min 0,0 UV-I 0 W/m 10,3 km/h (2 Bft)
29.05.2013 04:42 11,3 C 10,7 C 95 % 999,7 hPa 0,0 l/m 0 min 0 min 0,0 UV-I 0 W/m 12,9 km/h (3 Bft)
29.05.2013 04:44 11,3 C 10,7 C 95 % 999,7 hPa 0,0 l/m 0 min 0 min 0,0 UV-I 0 W/m 7,7 km/h (2 Bft)
29.05.2013 04:46 11,3 C 10,7 C 95 % 999,8 hPa 0,0 l/m 0 min 0 min 0,0 UV-I 0 W/m 10,3 km/h (2 Bft)
29.05.2013 04:48 11,3 C 10,7 C 95 % 999,7 hPa 0,0 l/m 0 min 0 min 0,0 UV-I 0 W/m 12,9 km/h (3 Bft)
29.05.2013 04:50 11,3 C 10,7 C 95 % 999,7 hPa 0,0 l/m 0 min 2 min 0,0 UV-I 0 W/m 0,0 km/h (0 Bft)
29.05.2013 04:52 11,3 C 10,7 C 95 % 999,7 hPa 0,0 l/m 0 min 0 min 0,0 UV-I 0 W/m 12,9 km/h (3 Bft)
29.05.2013 04:54 11,3 C 10,7 C 95 % 999,7 hPa 0,0 l/m 0 min 0 min 0,0 UV-I 0 W/m 0,0 km/h (0 Bft)
29.05.2013 04:56 11,3 C 10,7 C 95 % 999,7 hPa 0,0 l/m 0 min 0 min 0,0 UV-I 0 W/m 0,0 km/h (0 Bft)
29.05.2013 04:58 11,3 C 10,7 C 95 % 999,7 hPa 0,0 l/m 0 min 0 min 0,0 UV-I 0 W/m 7,7 km/h (2 Bft)
29.05.2013 05:00 11,2 C 10,7 C 95 % 999,7 hPa 0,0 l/m 0 min 0 min 0,0 UV-I 0 W/m 18,0 km/h (3 Bft)
29.05.2013 05:02 11,2 C 10,7 C 95 % 999,7 hPa 0,0 l/m 0 min 0 min 0,0 UV-I 0 W/m 2,6 km/h (1 Bft)
29.05.2013 05:04 11,2 C 10,7 C 95 % 999,6 hPa 0,0 l/m 0 min 0 min 0,0 UV-I 0 W/m 5,1 km/h (1 Bft)
29.05.2013 05:06 11,2 C 10,7 C 95 % 999,8 hPa 0,0 l/m 0 min 2 min 0,0 UV-I 0 W/m 7,7 km/h (2 Bft)
29.05.2013 05:08 11,2 C 10,7 C 95 % 999,7 hPa 0,0 l/m 0 min 0 min 0,0 UV-I 0 W/m 2,6 km/h (1 Bft)
29.05.2013 05:10 11,2 C 10,7 C 95 % 999,6 hPa 0,0 l/m 0 min 0 min 0,0 UV-I 0 W/m 2,6 km/h (1 Bft)
29.05.2013 05:12 11,3 C 10,1 C 95 % 999,6 hPa 0,0 l/m 0 min 0 min 0,0 UV-I 0 W/m 10,3 km/h (2 Bft)
29.05.2013 05:14 11,3 C 10,1 C 95 % 999,7 hPa 0,0 l/m 0 min 0 min 0,0 UV-I 0 W/m 12,9 km/h (3 Bft)
29.05.2013 05:16 11,3 C 10,1 C 95 % 999,6 hPa 0,0 l/m 0 min 0 min 0,0 UV-I 0 W/m 2,6 km/h (1 Bft)
29.05.2013 05:18 11,2 C 10,1 C 95 % 999,6 hPa 0,0 l/m 0 min 0 min 0,0 UV-I 0 W/m 5,1 km/h (1 Bft)
29.05.2013 05:20 11,2 C 10,1 C 95 % 999,6 hPa 0,0 l/m 0 min 0 min 0,0 UV-I 0 W/m 7,7 km/h (2 Bft)
29.05.2013 05:22 11,2 C 10,1 C 95 % 999,6 hPa 0,0 l/m 0 min 0 min 0,0 UV-I 0 W/m 12,9 km/h (3 Bft)
29.05.2013 05:24 11,2 C 10,1 C 95 % 999,6 hPa 0,0 l/m 0 min 0 min 0,0 UV-I 0 W/m 5,1 km/h (1 Bft)
29.05.2013 05:26 11,2 C 10,1 C 95 % 999,6 hPa 0,0 l/m 0 min 0 min 0,0 UV-I 0 W/m 20,6 km/h (4 Bft)
29.05.2013 05:28 11,1 C 10,1 C 95 % 999,6 hPa 0,0 l/m 0 min 0 min 0,0 UV-I 0 W/m 18,0 km/h (3 Bft)
29.05.2013 05:30 11,1 C 10,1 C 95 % 999,6 hPa 0,0 l/m 0 min 0 min 0,0 UV-I 0 W/m 10,3 km/h (2 Bft)
29.05.2013 05:32 11,1 C 10,1 C 95 % 999,5 hPa 0,0 l/m 0 min 0 min 0,0 UV-I 0 W/m 7,7 km/h (2 Bft)
29.05.2013 05:34 11,1 C 10,1 C 95 % 999,6 hPa 0,0 l/m 0 min 0 min 0,0 UV-I 0 W/m 7,7 km/h (2 Bft)
29.05.2013 05:36 11,1 C 10,1 C 95 % 999,5 hPa 0,0 l/m 0 min 0 min 0,0 UV-I 0 W/m 7,7 km/h (2 Bft)
29.05.2013 05:38 11,1 C 10,1 C 95 % 999,5 hPa 0,0 l/m 0 min 0 min 0,0 UV-I 0 W/m 7,7 km/h (2 Bft)
29.05.2013 05:40 11,1 C 10,1 C 95 % 999,5 hPa 0,0 l/m 0 min 0 min 0,0 UV-I 0 W/m 12,9 km/h (3 Bft)
29.05.2013 05:42 11,1 C 10,1 C 95 % 999,5 hPa 0,0 l/m 0 min 0 min 0,0 UV-I 0 W/m 10,3 km/h (2 Bft)
29.05.2013 05:44 11,1 C 10,1 C 95 % 999,5 hPa 0,0 l/m 0 min 0 min 0,0 UV-I 0 W/m 7,7 km/h (2 Bft)
29.05.2013 05:46 11,1 C 10,1 C 95 % 999,6 hPa 0,0 l/m 0 min 0 min 0,0 UV-I 0 W/m 2,6 km/h (1 Bft)
29.05.2013 05:48 11,1 C 10,1 C 95 % 999,6 hPa 0,0 l/m 0 min 0 min 0,0 UV-I 0 W/m 12,9 km/h (3 Bft)
29.05.2013 05:50 11,0 C 10,1 C 95 % 999,6 hPa 0,0 l/m 0 min 0 min 0,0 UV-I 0 W/m 12,9 km/h (3 Bft)
29.05.2013 05:52 11,0 C 10,1 C 95 % 999,5 hPa 0,0 l/m 0 min 0 min 0,0 UV-I 0 W/m 10,3 km/h (2 Bft)
29.05.2013 05:54 11,0 C 10,1 C 95 % 999,6 hPa 0,0 l/m 0 min 0 min 0,0 UV-I 0 W/m 7,7 km/h (2 Bft)
29.05.2013 05:56 11,0 C 10,1 C 95 % 999,5 hPa 0,0 l/m 0 min 0 min 0,0 UV-I 0 W/m 7,7 km/h (2 Bft)
29.05.2013 05:58 11,0 C 10,1 C 95 % 999,5 hPa 0,0 l/m 0 min 0 min 0,0 UV-I 0 W/m 12,9 km/h (3 Bft)
29.05.2013 06:00 11,0 C 10,1 C 95 % 999,6 hPa 0,0 l/m 0 min 0 min 0,0 UV-I 0 W/m 5,1 km/h (1 Bft)
29.05.2013 06:02 11,0 C 10,1 C 95 % 999,5 hPa 0,0 l/m 0 min 0 min 0,0 UV-I 0 W/m 0,0 km/h (0 Bft)
29.05.2013 06:04 11,0 C 10,1 C 95 % 999,6 hPa 0,0 l/m 0 min 0 min 0,0 UV-I 0 W/m 7,7 km/h (2 Bft)
29.05.2013 06:06 11,0 C 10,1 C 95 % 999,6 hPa 0,0 l/m 0 min 0 min 0,0 UV-I 0 W/m 7,7 km/h (2 Bft)
29.05.2013 06:08 11,0 C 10,1 C 95 % 999,6 hPa 0,0 l/m 0 min 0 min 0,0 UV-I 0 W/m 2,6 km/h (1 Bft)
29.05.2013 06:10 11,0 C 10,1 C 95 % 999,5 hPa 0,0 l/m 0 min 0 min 0,0 UV-I 0 W/m 2,6 km/h (1 Bft)
29.05.2013 06:12 11,0 C 10,1 C 95 % 999,5 hPa 0,0 l/m 0 min 0 min 0,0 UV-I 0 W/m 5,1 km/h (1 Bft)
29.05.2013 06:14 11,0 C 10,1 C 95 % 999,5 hPa 0,0 l/m 0 min 0 min 0,0 UV-I 0 W/m 0,0 km/h (0 Bft)
29.05.2013 06:16 11,0 C 10,1 C 95 % 999,5 hPa 0,0 l/m 0 min 0 min 0,0 UV-I 0 W/m 20,6 km/h (4 Bft)
29.05.2013 06:18 11,0 C 10,1 C 95 % 999,5 hPa 0,0 l/m 0 min 0 min 0,0 UV-I 0 W/m 0,0 km/h (0 Bft)
29.05.2013 06:20 11,0 C 10,1 C 95 % 999,6 hPa 0,0 l/m 0 min 0 min 0,0 UV-I 0 W/m 7,7 km/h (2 Bft)
29.05.2013 06:22 11,0 C 10,1 C 95 % 999,5 hPa 0,0 l/m 0 min 0 min 0,0 UV-I 0 W/m 7,7 km/h (2 Bft)
29.05.2013 06:24 11,0 C 10,1 C 95 % 999,5 hPa 0,0 l/m 0 min 0 min 0,0 UV-I 5 W/m 7,7 km/h (2 Bft)
29.05.2013 06:26 11,0 C 10,1 C 95 % 999,5 hPa 0,0 l/m 0 min 0 min 0,0 UV-I 5 W/m 12,9 km/h (3 Bft)
29.05.2013 06:28 11,0 C 10,1 C 95 % 999,5 hPa 0,0 l/m 0 min 0 min 0,0 UV-I 5 W/m 0,0 km/h (0 Bft)
29.05.2013 06:30 11,0 C 10,1 C 95 % 999,4 hPa 0,0 l/m 0 min 2 min 0,0 UV-I 5 W/m 15,4 km/h (3 Bft)
29.05.2013 06:32 11,0 C 10,1 C 95 % 999,4 hPa 0,0 l/m 0 min 0 min 0,0 UV-I 5 W/m 10,3 km/h (2 Bft)
29.05.2013 06:34 11,0 C 10,1 C 95 % 999,4 hPa 0,0 l/m 0 min 2 min 0,0 UV-I 5 W/m 10,3 km/h (2 Bft)
29.05.2013 06:36 11,0 C 10,1 C 95 % 999,4 hPa 0,0 l/m 0 min 0 min 0,0 UV-I 5 W/m 0,0 km/h (0 Bft)
29.05.2013 06:38 11,0 C 10,1 C 95 % 999,4 hPa 0,0 l/m 0 min 2 min 0,0 UV-I 5 W/m 2,6 km/h (1 Bft)
29.05.2013 06:40 11,0 C 10,1 C 95 % 999,4 hPa 0,0 l/m 0 min 0 min 0,0 UV-I 5 W/m 0,0 km/h (0 Bft)
29.05.2013 06:42 11,0 C 10,1 C 95 % 999,4 hPa 0,0 l/m 0 min 2 min 0,0 UV-I 7 W/m 7,7 km/h (2 Bft)
29.05.2013 06:44 11,0 C 10,1 C 95 % 999,4 hPa 0,0 l/m 0 min 2 min 0,0 UV-I 7 W/m 7,7 km/h (2 Bft)
29.05.2013 06:46 11,0 C 10,1 C 95 % 999,4 hPa 0,0 l/m 0 min 0 min 0,0 UV-I 7 W/m 0,0 km/h (0 Bft)
29.05.2013 06:48 11,0 C 10,1 C 95 % 999,3 hPa 0,0 l/m 0 min 2 min 0,0 UV-I 7 W/m 2,6 km/h (1 Bft)
29.05.2013 06:50 11,0 C 10,1 C 95 % 999,4 hPa 0,0 l/m 0 min 0 min 0,0 UV-I 7 W/m 0,0 km/h (0 Bft)
29.05.2013 06:52 11,0 C 10,1 C 95 % 999,3 hPa 0,0 l/m 0 min 0 min 0,0 UV-I 7 W/m 0,0 km/h (0 Bft)
29.05.2013 06:54 11,0 C 10,1 C 95 % 999,4 hPa 0,0 l/m 0 min 2 min 0,0 UV-I 9 W/m 7,7 km/h (2 Bft)
29.05.2013 06:56 11,0 C 10,1 C 95 % 999,4 hPa 0,0 l/m 0 min 0 min 0,0 UV-I 11 W/m 12,9 km/h (3 Bft)
29.05.2013 06:58 11,0 C 10,1 C 95 % 999,4 hPa 0,0 l/m 0 min 0 min 0,0 UV-I 11 W/m 12,9 km/h (3 Bft)
29.05.2013 07:00 11,0 C 10,1 C 95 % 999,4 hPa 0,0 l/m 0 min 0 min 0,0 UV-I 9 W/m 5,1 km/h (1 Bft)
29.05.2013 07:02 11,0 C 10,1 C 95 % 999,3 hPa 0,0 l/m 0 min 0 min 0,0 UV-I 11 W/m 5,1 km/h (1 Bft)
29.05.2013 07:04 11,0 C 10,1 C 95 % 999,3 hPa 0,0 l/m 0 min 0 min 0,0 UV-I 11 W/m 7,7 km/h (2 Bft)
29.05.2013 07:06 11,0 C 10,1 C 95 % 999,3 hPa 0,0 l/m 0 min 2 min 0,0 UV-I 12 W/m 7,7 km/h (2 Bft)
29.05.2013 07:08 11,0 C 10,1 C 95 % 999,3 hPa 0,0 l/m 0 min 2 min 0,0 UV-I 14 W/m 7,7 km/h (2 Bft)
29.05.2013 07:10 11,0 C 10,1 C 95 % 999,3 hPa 0,0 l/m 0 min 0 min 0,0 UV-I 14 W/m 7,7 km/h (2 Bft)
29.05.2013 07:12 11,0 C 10,1 C 95 % 999,3 hPa 0,0 l/m 0 min 0 min 0,0 UV-I 14 W/m 0,0 km/h (0 Bft)
29.05.2013 07:14 10,9 C 10,1 C 95 % 999,4 hPa 0,0 l/m 0 min 2 min 0,0 UV-I 16 W/m 15,4 km/h (3 Bft)
29.05.2013 07:16 10,9 C 10,1 C 95 % 999,4 hPa 0,0 l/m 0 min 2 min 0,0 UV-I 14 W/m 7,7 km/h (2 Bft)
29.05.2013 07:18 10,9 C 10,1 C 95 % 999,4 hPa 0,0 l/m 0 min 2 min 0,0 UV-I 14 W/m 7,7 km/h (2 Bft)
29.05.2013 07:20 11,0 C 10,1 C 95 % 999,4 hPa 0,0 l/m 0 min 2 min 0,0 UV-I 14 W/m 5,1 km/h (1 Bft)
29.05.2013 07:22 11,0 C 10,1 C 96 % 999,3 hPa 0,0 l/m 0 min 2 min 0,0 UV-I 14 W/m 15,4 km/h (3 Bft)
29.05.2013 07:24 11,0 C 10,1 C 96 % 999,3 hPa 0,0 l/m 0 min 2 min 0,0 UV-I 11 W/m 10,3 km/h (2 Bft)
29.05.2013 07:26 10,9 C 10,1 C 96 % 999,3 hPa 0,0 l/m 0 min 2 min 0,0 UV-I 11 W/m 0,0 km/h (0 Bft)
29.05.2013 07:28 11,0 C 10,1 C 96 % 999,3 hPa 0,0 l/m 0 min 2 min 0,0 UV-I 11 W/m 7,7 km/h (2 Bft)
29.05.2013 07:30 11,0 C 10,1 C 96 % 999,3 hPa 0,2 l/m 0 min 2 min 0,0 UV-I 9 W/m 7,7 km/h (2 Bft)
29.05.2013 07:32 11,0 C 10,1 C 96 % 999,3 hPa 0,0 l/m 0 min 2 min 0,0 UV-I 9 W/m 5,1 km/h (1 Bft)
29.05.2013 07:34 11,0 C 10,1 C 96 % 999,3 hPa 0,0 l/m 0 min 2 min 0,0 UV-I 11 W/m 10,3 km/h (2 Bft)
29.05.2013 07:36 11,0 C 10,1 C 96 % 999,3 hPa 0,0 l/m 0 min 2 min 0,0 UV-I 16 W/m 7,7 km/h (2 Bft)
29.05.2013 07:38 11,0 C 10,1 C 96 % 999,3 hPa 0,0 l/m 0 min 2 min 0,0 UV-I 16 W/m 12,9 km/h (3 Bft)
29.05.2013 07:40 10,9 C 9,6 C 96 % 999,3 hPa 0,0 l/m 0 min 2 min 0,0 UV-I 14 W/m 12,9 km/h (3 Bft)
29.05.2013 07:42 10,9 C 9,6 C 96 % 999,4 hPa 0,0 l/m 0 min 2 min 0,0 UV-I 16 W/m 18,0 km/h (3 Bft)
29.05.2013 07:44 10,9 C 9,6 C 96 % 999,4 hPa 0,0 l/m 0 min 2 min 0,0 UV-I 16 W/m 15,4 km/h (3 Bft)
29.05.2013 07:46 10,9 C 9,6 C 96 % 999,4 hPa 0,0 l/m 0 min 2 min 0,0 UV-I 16 W/m 2,6 km/h (1 Bft)
29.05.2013 07:48 10,8 C 9,6 C 96 % 999,4 hPa 0,0 l/m 0 min 2 min 0,0 UV-I 19 W/m 5,1 km/h (1 Bft)
29.05.2013 07:50 10,8 C 9,6 C 96 % 999,4 hPa 0,0 l/m 0 min 2 min 0,0 UV-I 18 W/m 5,1 km/h (1 Bft)
29.05.2013 07:52 10,8 C 9,6 C 96 % 999,4 hPa 0,0 l/m 0 min 2 min 0,0 UV-I 14 W/m 0,0 km/h (0 Bft)
29.05.2013 07:54 10,8 C 9,6 C 96 % 999,4 hPa 0,0 l/m 0 min 2 min 0,0 UV-I 11 W/m 10,3 km/h (2 Bft)
29.05.2013 07:56 10,8 C 9,6 C 96 % 999,4 hPa 0,0 l/m 0 min 2 min 0,0 UV-I 11 W/m 0,0 km/h (0 Bft)
29.05.2013 07:58 10,7 C 9,6 C 96 % 999,5 hPa 0,0 l/m 0 min 2 min 0,0 UV-I 11 W/m 10,3 km/h (2 Bft)
29.05.2013 08:00 10,7 C 9,6 C 96 % 999,5 hPa 0,0 l/m 0 min 2 min 0,0 UV-I 12 W/m 0,0 km/h (0 Bft)
29.05.2013 08:02 10,7 C 9,6 C 96 % 999,4 hPa 0,2 l/m 0 min 2 min 0,0 UV-I 14 W/m 10,3 km/h (2 Bft)
29.05.2013 08:04 10,7 C 9,6 C 96 % 999,4 hPa 0,0 l/m 0 min 2 min 0,0 UV-I 14 W/m 2,6 km/h (1 Bft)
29.05.2013 08:06 10,7 C 9,6 C 96 % 999,4 hPa 0,0 l/m 0 min 2 min 0,0 UV-I 14 W/m 0,0 km/h (0 Bft)
29.05.2013 08:08 10,7 C 9,6 C 96 % 999,4 hPa 0,0 l/m 0 min 2 min 0,0 UV-I 14 W/m 0,0 km/h (0 Bft)
29.05.2013 08:10 10,7 C 9,6 C 96 % 999,5 hPa 0,0 l/m 0 min 2 min 0,0 UV-I 16 W/m 7,7 km/h (2 Bft)
29.05.2013 08:12 10,7 C 9,6 C 96 % 999,4 hPa 0,0 l/m 0 min 2 min 0,0 UV-I 12 W/m 2,6 km/h (1 Bft)
29.05.2013 08:14 10,7 C 9,6 C 96 % 999,5 hPa 0,0 l/m 0 min 2 min 0,0 UV-I 12 W/m 7,7 km/h (2 Bft)
29.05.2013 08:16 10,7 C 9,6 C 96 % 999,5 hPa 0,0 l/m 0 min 2 min 0,0 UV-I 12 W/m 7,7 km/h (2 Bft)
29.05.2013 08:18 10,7 C 9,6 C 96 % 999,5 hPa 0,0 l/m 0 min 2 min 0,0 UV-I 11 W/m 0,0 km/h (0 Bft)
29.05.2013 08:20 10,7 C 9,6 C 96 % 999,5 hPa 0,0 l/m 0 min 2 min 0,0 UV-I 14 W/m 2,6 km/h (1 Bft)
29.05.2013 08:22 10,6 C 9,6 C 96 % 999,5 hPa 0,2 l/m 0 min 2 min 0,0 UV-I 16 W/m 2,6 km/h (1 Bft)
29.05.2013 08:24 10,6 C 9,6 C 96 % 999,5 hPa 0,0 l/m 0 min 2 min 0,0 UV-I 12 W/m 10,3 km/h (2 Bft)
29.05.2013 08:26 10,6 C 9,6 C 96 % 999,5 hPa 0,0 l/m 0 min 2 min 0,0 UV-I 9 W/m 7,7 km/h (2 Bft)
29.05.2013 08:28 10,6 C 9,6 C 96 % 999,6 hPa 0,0 l/m 0 min 2 min 0,0 UV-I 11 W/m 15,4 km/h (3 Bft)
29.05.2013 08:30 10,6 C 9,6 C 96 % 999,6 hPa 0,0 l/m 0 min 2 min 0,0 UV-I 14 W/m 20,6 km/h (4 Bft)
29.05.2013 08:32 10,5 C 9,6 C 96 % 999,6 hPa 0,0 l/m 0 min 2 min 0,0 UV-I 16 W/m 10,3 km/h (2 Bft)
29.05.2013 08:34 10,4 C 9,0 C 96 % 999,6 hPa 0,0 l/m 0 min 2 min 0,0 UV-I 16 W/m 10,3 km/h (2 Bft)
29.05.2013 08:36 10,4 C 9,0 C 96 % 999,6 hPa 0,0 l/m 0 min 2 min 0,0 UV-I 18 W/m 23,2 km/h (4 Bft)
29.05.2013 08:38 10,3 C 9,0 C 96 % 999,6 hPa 0,0 l/m 0 min 2 min 0,0 UV-I 21 W/m 20,6 km/h (4 Bft)
29.05.2013 08:40 10,3 C 9,0 C 96 % 999,7 hPa 0,0 l/m 0 min 2 min 0,0 UV-I 25 W/m 10,3 km/h (2 Bft)
29.05.2013 08:42 10,2 C 9,0 C 96 % 999,7 hPa 0,0 l/m 0 min 2 min 0,0 UV-I 30 W/m 12,9 km/h (3 Bft)
29.05.2013 08:44 10,1 C 9,0 C 96 % 999,7 hPa 0,0 l/m 0 min 2 min 0,0 UV-I 33 W/m 7,7 km/h (2 Bft)
29.05.2013 08:46 10,1 C 9,0 C 96 % 999,7 hPa 0,2 l/m 0 min 2 min 0,0 UV-I 42 W/m 10,3 km/h (2 Bft)
29.05.2013 08:48 10,0 C 9,0 C 96 % 999,6 hPa 0,0 l/m 0 min 2 min 0,0 UV-I 46 W/m 10,3 km/h (2 Bft)
29.05.2013 08:50 9,9 C 9,0 C 96 % 999,6 hPa 0,0 l/m 0 min 2 min 0,0 UV-I 39 W/m 12,9 km/h (3 Bft)
29.05.2013 08:52 9,9 C 9,0 C 96 % 999,7 hPa 0,0 l/m 0 min 2 min 0,0 UV-I 47 W/m 5,1 km/h (1 Bft)
29.05.2013 08:54 9,9 C 9,0 C 96 % 999,7 hPa 0,0 l/m 0 min 2 min 0,0 UV-I 54 W/m 7,7 km/h (2 Bft)
29.05.2013 08:56 9,8 C 9,0 C 96 % 999,7 hPa 0,0 l/m 0 min 2 min 0,0 UV-I 58 W/m 15,4 km/h (3 Bft)
29.05.2013 08:58 9,8 C 9,0 C 96 % 999,7 hPa 0,0 l/m 0 min 2 min 0,0 UV-I 67 W/m 12,9 km/h (3 Bft)
29.05.2013 09:00 9,8 C 9,0 C 96 % 999,8 hPa 0,0 l/m 0 min 2 min 0,0 UV-I 67 W/m 12,9 km/h (3 Bft)
29.05.2013 09:02 9,7 C 9,0 C 96 % 999,7 hPa 0,0 l/m 0 min 2 min 0,0 UV-I 67 W/m 10,3 km/h (2 Bft)
29.05.2013 09:04 9,7 C 9,0 C 96 % 999,7 hPa 0,0 l/m 0 min 2 min 0,0 UV-I 76 W/m 2,6 km/h (1 Bft)
29.05.2013 09:06 9,7 C 9,0 C 96 % 999,8 hPa 0,0 l/m 0 min 2 min 0,0 UV-I 84 W/m 0,0 km/h (0 Bft)
29.05.2013 09:08 9,7 C 9,0 C 96 % 999,8 hPa 0,0 l/m 0 min 2 min 0,0 UV-I 90 W/m 10,3 km/h (2 Bft)
29.05.2013 09:10 9,7 C 9,0 C 96 % 999,8 hPa 0,0 l/m 0 min 2 min 0,0 UV-I 100 W/m 7,7 km/h (2 Bft)
29.05.2013 09:12 9,7 C 9,0 C 96 % 999,8 hPa 0,0 l/m 0 min 2 min 0,0 UV-I 102 W/m 7,7 km/h (2 Bft)
29.05.2013 09:14 9,7 C 9,0 C 96 % 999,8 hPa 0,0 l/m 0 min 2 min 0,0 UV-I 104 W/m 15,4 km/h (3 Bft)
29.05.2013 09:16 9,7 C 9,0 C 96 % 999,8 hPa 0,0 l/m 0 min 2 min 0,0 UV-I 74 W/m 7,7 km/h (2 Bft)
29.05.2013 09:18 9,7 C 9,0 C 96 % 999,9 hPa 0,0 l/m 0 min 2 min 0,0 UV-I 74 W/m 10,3 km/h (2 Bft)
29.05.2013 09:20 9,6 C 9,0 C 96 % 999,9 hPa 0,0 l/m 0 min 2 min 0,0 UV-I 65 W/m 7,7 km/h (2 Bft)
29.05.2013 09:22 9,6 C 9,0 C 96 % 999,9 hPa 0,2 l/m 0 min 2 min 0,0 UV-I 54 W/m 2,6 km/h (1 Bft)
29.05.2013 09:24 9,6 C 9,0 C 96 % 999,9 hPa 0,0 l/m 0 min 2 min 0,0 UV-I 54 W/m 23,2 km/h (4 Bft)
29.05.2013 09:26 9,6 C 9,0 C 96 % 1000,0 hPa 0,0 l/m 0 min 2 min 0,0 UV-I 62 W/m 15,4 km/h (3 Bft)
29.05.2013 09:28 9,6 C 9,0 C 96 % 1000,0 hPa 0,0 l/m 0 min 2 min 0,0 UV-I 60 W/m 10,3 km/h (2 Bft)
29.05.2013 09:30 9,5 C 8,4 C 96 % 1000,0 hPa 0,0 l/m 0 min 2 min 0,0 UV-I 72 W/m 15,4 km/h (3 Bft)
29.05.2013 09:32 9,5 C 8,4 C 96 % 1000,1 hPa 0,0 l/m 0 min 2 min 0,0 UV-I 46 W/m 7,7 km/h (2 Bft)
29.05.2013 09:34 9,4 C 8,4 C 96 % 1000,1 hPa 0,0 l/m 0 min 2 min 0,0 UV-I 74 W/m 15,4 km/h (3 Bft)
29.05.2013 09:36 9,4 C 8,4 C 96 % 1000,1 hPa 0,2 l/m 0 min 2 min 0,0 UV-I 63 W/m 12,9 km/h (3 Bft)
29.05.2013 09:38 9,4 C 9,0 C 96 % 1000,0 hPa 0,0 l/m 0 min 2 min 0,0 UV-I 62 W/m 5,1 km/h (1 Bft)
29.05.2013 09:40 9,4 C 9,0 C 96 % 1000,0 hPa 0,0 l/m 0 min 2 min 0,0 UV-I 76 W/m 5,1 km/h (1 Bft)
29.05.2013 09:42 9,4 C 9,0 C 96 % 1000,1 hPa 0,0 l/m 0 min 2 min 0,0 UV-I 74 W/m 15,4 km/h (3 Bft)
29.05.2013 09:44 9,4 C 9,0 C 96 % 1000,1 hPa 0,2 l/m 0 min 2 min 0,0 UV-I 74 W/m 10,3 km/h (2 Bft)
29.05.2013 09:46 9,4 C 8,4 C 96 % 1000,1 hPa 0,0 l/m 0 min 2 min 0,0 UV-I 70 W/m 10,3 km/h (2 Bft)
29.05.2013 09:48 9,4 C 9,0 C 96 % 1000,0 hPa 0,0 l/m 0 min 2 min 0,0 UV-I 81 W/m 7,7 km/h (2 Bft)
29.05.2013 09:50 9,4 C 9,0 C 96 % 1000,0 hPa 0,0 l/m 0 min 2 min 0,0 UV-I 72 W/m 12,9 km/h (3 Bft)
29.05.2013 09:52 9,4 C 9,0 C 96 % 1000,0 hPa 0,2 l/m 0 min 2 min 0,0 UV-I 91 W/m 15,4 km/h (3 Bft)
29.05.2013 09:54 9,4 C 9,0 C 96 % 1000,1 hPa 0,0 l/m 0 min 2 min 0,0 UV-I 84 W/m 10,3 km/h (2 Bft)
29.05.2013 09:56 9,4 C 8,4 C 96 % 1000,0 hPa 0,0 l/m 0 min 2 min 0,0 UV-I 83 W/m 18,0 km/h (3 Bft)
29.05.2013 09:58 9,4 C 8,4 C 96 % 1000,0 hPa 0,2 l/m 0 min 2 min 0,0 UV-I 74 W/m 15,4 km/h (3 Bft)
29.05.2013 10:00 9,4 C 8,4 C 96 % 1000,1 hPa 0,0 l/m 0 min 2 min 0,0 UV-I 62 W/m 10,3 km/h (2 Bft)
29.05.2013 10:02 9,3 C 8,4 C 96 % 1000,1 hPa 0,2 l/m 0 min 2 min 0,0 UV-I 69 W/m 7,7 km/h (2 Bft)
29.05.2013 10:04 9,3 C 8,4 C 96 % 1000,1 hPa 0,0 l/m 0 min 2 min 0,0 UV-I 69 W/m 10,3 km/h (2 Bft)
29.05.2013 10:06 9,3 C 8,4 C 96 % 1000,1 hPa 0,2 l/m 0 min 2 min 0,0 UV-I 83 W/m 10,3 km/h (2 Bft)
29.05.2013 10:08 9,3 C 8,4 C 96 % 1000,0 hPa 0,2 l/m 0 min 2 min 0,0 UV-I 88 W/m 15,4 km/h (3 Bft)
29.05.2013 10:10 9,3 C 8,4 C 96 % 1000,1 hPa 0,0 l/m 0 min 2 min 0,0 UV-I 81 W/m 10,3 km/h (2 Bft)
29.05.2013 10:12 9,3 C 8,4 C 96 % 1000,1 hPa 0,2 l/m 0 min 2 min 0,0 UV-I 91 W/m 10,3 km/h (2 Bft)
29.05.2013 10:14 9,3 C 8,4 C 96 % 1000,1 hPa 0,2 l/m 0 min 2 min 0,0 UV-I 81 W/m 15,4 km/h (3 Bft)
29.05.2013 10:16 9,3 C 8,4 C 96 % 1000,1 hPa 0,2 l/m 0 min 2 min 0,0 UV-I 81 W/m 7,7 km/h (2 Bft)
29.05.2013 10:18 9,3 C 8,4 C 96 % 1000,1 hPa 0,2 l/m 0 min 2 min 0,0 UV-I 95 W/m 7,7 km/h (2 Bft)
29.05.2013 10:20 9,3 C 9,0 C 96 % 1000,0 hPa 0,0 l/m 0 min 2 min 0,0 UV-I 105 W/m 7,7 km/h (2 Bft)
29.05.2013 10:22 9,3 C 8,4 C 96 % 999,9 hPa 0,2 l/m 0 min 2 min 0,0 UV-I 107 W/m 18,0 km/h (3 Bft)
29.05.2013 10:24 9,3 C 8,4 C 96 % 1000,0 hPa 0,2 l/m 0 min 2 min 0,0 UV-I 105 W/m 20,6 km/h (4 Bft)
29.05.2013 10:26 9,2 C 8,4 C 96 % 1000,0 hPa 0,2 l/m 0 min 2 min 0,0 UV-I 83 W/m 7,7 km/h (2 Bft)
29.05.2013 10:28 9,2 C 8,4 C 96 % 1000,0 hPa 0,0 l/m 0 min 2 min 0,0 UV-I 81 W/m 2,6 km/h (1 Bft)
29.05.2013 10:30 9,3 C 8,4 C 96 % 1000,0 hPa 0,2 l/m 0 min 2 min 0,0 UV-I 77 W/m 15,4 km/h (3 Bft)
29.05.2013 10:32 9,2 C 8,4 C 96 % 1000,0 hPa 0,0 l/m 0 min 2 min 0,0 UV-I 102 W/m 15,4 km/h (3 Bft)
29.05.2013 10:34 9,2 C 9,0 C 96 % 1000,0 hPa 0,2 l/m 0 min 2 min 0,0 UV-I 102 W/m 10,3 km/h (2 Bft)
29.05.2013 10:36 9,3 C 9,0 C 97 % 1000,0 hPa 0,0 l/m 0 min 2 min 0,0 UV-I 104 W/m 0,0 km/h (0 Bft)
29.05.2013 10:38 9,3 C 9,0 C 97 % 1000,0 hPa 0,0 l/m 0 min 2 min 0,0 UV-I 141 W/m 10,3 km/h (2 Bft)
29.05.2013 10:40 9,3 C 9,0 C 97 % 999,9 hPa 0,2 l/m 0 min 2 min 0,0 UV-I 155 W/m 20,6 km/h (4 Bft)
29.05.2013 10:42 9,3 C 9,0 C 97 % 999,9 hPa 0,0 l/m 0 min 2 min 0,0 UV-I 141 W/m 15,4 km/h (3 Bft)
29.05.2013 10:44 9,3 C 9,0 C 97 % 999,9 hPa 0,2 l/m 0 min 2 min 0,0 UV-I 127 W/m 18,0 km/h (3 Bft)
29.05.2013 10:46 9,3 C 9,0 C 97 % 999,9 hPa 0,0 l/m 0 min 2 min 0,0 UV-I 128 W/m 18,0 km/h (3 Bft)
29.05.2013 10:48 9,4 C 9,0 C 97 % 999,9 hPa 0,0 l/m 0 min 2 min 0,0 UV-I 105 W/m 10,3 km/h (2 Bft)
29.05.2013 10:50 9,3 C 9,0 C 97 % 999,9 hPa 0,0 l/m 0 min 2 min 0,0 UV-I 120 W/m 10,3 km/h (2 Bft)
29.05.2013 10:52 9,3 C 9,0 C 97 % 999,8 hPa 0,2 l/m 0 min 2 min 0,0 UV-I 146 W/m 15,4 km/h (3 Bft)
29.05.2013 10:54 9,3 C 9,0 C 97 % 999,8 hPa 0,0 l/m 0 min 2 min 0,0 UV-I 155 W/m 15,4 km/h (3 Bft)
29.05.2013 10:56 9,3 C 9,0 C 97 % 999,8 hPa 0,0 l/m 0 min 2 min 0,0 UV-I 181 W/m 10,3 km/h (2 Bft)
29.05.2013 10:58 9,4 C 9,0 C 97 % 999,7 hPa 0,0 l/m 0 min 2 min 0,0 UV-I 178 W/m 7,7 km/h (2 Bft)
29.05.2013 11:00 9,4 C 9,6 C 97 % 999,8 hPa 0,0 l/m 0 min 2 min 0,0 UV-I 169 W/m 10,3 km/h (2 Bft)
29.05.2013 11:02 9,5 C 9,6 C 97 % 999,7 hPa 0,0 l/m 0 min 2 min 0,5 UV-I 193 W/m 5,1 km/h (1 Bft)
29.05.2013 11:04 9,5 C 9,6 C 97 % 999,7 hPa 0,0 l/m 0 min 2 min 0,5 UV-I 195 W/m 12,9 km/h (3 Bft)
29.05.2013 11:06 9,6 C 9,6 C 97 % 999,8 hPa 0,0 l/m 0 min 2 min 0,7 UV-I 229 W/m 7,7 km/h (2 Bft)
29.05.2013 11:08 9,6 C 9,6 C 97 % 999,8 hPa 0,2 l/m 0 min 2 min 0,7 UV-I 232 W/m 15,4 km/h (3 Bft)
29.05.2013 11:10 9,6 C 9,6 C 97 % 999,7 hPa 0,0 l/m 0 min 2 min 0,9 UV-I 258 W/m 18,0 km/h (3 Bft)
29.05.2013 11:12 9,7 C 9,6 C 97 % 999,8 hPa 0,0 l/m 0 min 2 min 1,0 UV-I 278 W/m 18,0 km/h (3 Bft)
29.05.2013 11:14 9,7 C 10,1 C 97 % 999,8 hPa 0,0 l/m 0 min 2 min 1,0 UV-I 283 W/m 10,3 km/h (2 Bft)
29.05.2013 11:16 9,8 C 10,1 C 97 % 999,8 hPa 0,0 l/m 0 min 2 min 1,1 UV-I 316 W/m 20,6 km/h (4 Bft)
29.05.2013 11:18 9,8 C 10,1 C 97 % 999,8 hPa 0,0 l/m 0 min 2 min 1,1 UV-I 302 W/m 12,9 km/h (3 Bft)
29.05.2013 11:20 9,8 C 10,1 C 97 % 999,8 hPa 0,0 l/m 0 min 2 min 1,0 UV-I 283 W/m 15,4 km/h (3 Bft)
29.05.2013 11:22 9,8 C 10,1 C 97 % 999,8 hPa 0,0 l/m 0 min 2 min 0,9 UV-I 267 W/m 15,4 km/h (3 Bft)
29.05.2013 11:24 9,9 C 10,1 C 97 % 999,8 hPa 0,0 l/m 0 min 2 min 0,7 UV-I 241 W/m 18,0 km/h (3 Bft)
29.05.2013 11:26 9,9 C 10,1 C 97 % 999,7 hPa 0,0 l/m 0 min 2 min 0,0 UV-I 192 W/m 10,3 km/h (2 Bft)
29.05.2013 11:28 9,9 C 9,6 C 97 % 999,8 hPa 0,0 l/m 0 min 2 min 0,0 UV-I 171 W/m 10,3 km/h (2 Bft)
29.05.2013 11:30 9,9 C 9,6 C 97 % 999,8 hPa 0,0 l/m 0 min 2 min 0,0 UV-I 132 W/m 15,4 km/h (3 Bft)
29.05.2013 11:32 9,8 C 9,6 C 97 % 999,8 hPa 0,0 l/m 0 min 2 min 0,0 UV-I 114 W/m 18,0 km/h (3 Bft)
29.05.2013 11:34 9,8 C 9,6 C 97 % 999,8 hPa 0,0 l/m 0 min 2 min 0,0 UV-I 88 W/m 5,1 km/h (1 Bft)
29.05.2013 11:36 9,8 C 9,6 C 97 % 999,9 hPa 0,0 l/m 0 min 2 min 0,0 UV-I 100 W/m 2,6 km/h (1 Bft)
29.05.2013 11:38 9,8 C 9,6 C 97 % 999,9 hPa 0,0 l/m 0 min 2 min 0,0 UV-I 86 W/m 20,6 km/h (4 Bft)
29.05.2013 11:40 9,8 C 9,0 C 97 % 999,9 hPa 0,0 l/m 0 min 2 min 0,0 UV-I 97 W/m 18,0 km/h (3 Bft)
29.05.2013 11:42 9,7 C 9,0 C 97 % 999,8 hPa 0,0 l/m 0 min 2 min 0,0 UV-I 70 W/m 25,7 km/h (4 Bft)
29.05.2013 11:44 9,7 C 9,0 C 97 % 999,8 hPa 0,0 l/m 0 min 2 min 0,0 UV-I 86 W/m 12,9 km/h (3 Bft)
29.05.2013 11:46 9,7 C 9,0 C 97 % 1000,0 hPa 0,0 l/m 0 min 2 min 0,0 UV-I 77 W/m 7,7 km/h (2 Bft)
29.05.2013 11:48 9,7 C 9,0 C 97 % 1000,0 hPa 0,0 l/m 0 min 2 min 0,0 UV-I 100 W/m 7,7 km/h (2 Bft)
29.05.2013 11:50 9,7 C 9,0 C 97 % 1000,0 hPa 0,0 l/m 0 min 2 min 0,0 UV-I 72 W/m 12,9 km/h (3 Bft)
29.05.2013 11:52 9,7 C 9,0 C 97 % 1000,1 hPa 0,0 l/m 0 min 2 min 0,0 UV-I 84 W/m 10,3 km/h (2 Bft)
29.05.2013 11:54 9,7 C 9,0 C 97 % 1000,3 hPa 0,0 l/m 0 min 2 min 0,0 UV-I 76 W/m 12,9 km/h (3 Bft)
29.05.2013 11:56 9,7 C 9,0 C 97 % 1000,2 hPa 0,0 l/m 0 min 2 min 0,0 UV-I 79 W/m 23,2 km/h (4 Bft)
29.05.2013 11:58 9,7 C 9,0 C 97 % 1000,2 hPa 0,0 l/m 0 min 2 min 0,0 UV-I 77 W/m 10,3 km/h (2 Bft)
29.05.2013 12:00 9,7 C 9,0 C 97 % 1000,3 hPa 0,0 l/m 0 min 2 min 0,0 UV-I 67 W/m 2,6 km/h (1 Bft)
29.05.2013 12:02 9,7 C 9,0 C 97 % 1000,3 hPa 0,2 l/m 0 min 2 min 0,0 UV-I 69 W/m 12,9 km/h (3 Bft)
29.05.2013 12:04 9,7 C 9,0 C 97 % 1000,3 hPa 0,0 l/m 0 min 2 min 0,0 UV-I 53 W/m 5,1 km/h (1 Bft)
29.05.2013 12:06 9,7 C 9,0 C 97 % 1000,4 hPa 0,0 l/m 0 min 2 min 0,0 UV-I 76 W/m 10,3 km/h (2 Bft)
29.05.2013 12:08 9,7 C 9,0 C 97 % 1000,4 hPa 0,0 l/m 0 min 2 min 0,0 UV-I 65 W/m 0,0 km/h (0 Bft)
29.05.2013 12:10 9,7 C 9,0 C 97 % 1000,5 hPa 0,0 l/m 0 min 2 min 0,0 UV-I 56 W/m 7,7 km/h (2 Bft)
29.05.2013 12:12 9,7 C 9,0 C 97 % 1000,5 hPa 0,0 l/m 0 min 2 min 0,0 UV-I 86 W/m 5,1 km/h (1 Bft)
29.05.2013 12:14 9,7 C 9,0 C 97 % 1000,6 hPa 0,0 l/m 0 min 2 min 0,0 UV-I 67 W/m 10,3 km/h (2 Bft)
29.05.2013 12:16 9,7 C 9,0 C 97 % 1000,5 hPa 0,2 l/m 0 min 2 min 0,0 UV-I 67 W/m 0,0 km/h (0 Bft)
29.05.2013 12:18 9,7 C 9,0 C 97 % 1000,5 hPa 0,0 l/m 0 min 2 min 0,0 UV-I 54 W/m 10,3 km/h (2 Bft)
29.05.2013 12:20 9,7 C 9,0 C 97 % 1000,5 hPa 0,0 l/m 0 min 2 min 0,0 UV-I 63 W/m 10,3 km/h (2 Bft)
29.05.2013 12:22 9,7 C 9,0 C 97 % 1000,5 hPa 0,0 l/m 0 min 2 min 0,0 UV-I 72 W/m 12,9 km/h (3 Bft)
29.05.2013 12:24 9,7 C 9,0 C 97 % 1000,5 hPa 0,0 l/m 0 min 2 min 0,0 UV-I 88 W/m 7,7 km/h (2 Bft)
29.05.2013 12:26 9,7 C 9,0 C 97 % 1000,5 hPa 0,0 l/m 0 min 2 min 0,0 UV-I 81 W/m 0,0 km/h (0 Bft)
29.05.2013 12:28 9,7 C 9,0 C 97 % 1000,6 hPa 0,0 l/m 0 min 2 min 0,0 UV-I 97 W/m 0,0 km/h (0 Bft)
29.05.2013 12:30 9,7 C 9,0 C 97 % 1000,6 hPa 0,0 l/m 0 min 2 min 0,0 UV-I 100 W/m 18,0 km/h (3 Bft)
29.05.2013 12:32 9,7 C 9,0 C 97 % 1000,6 hPa 0,0 l/m 0 min 2 min 0,0 UV-I 114 W/m 20,6 km/h (4 Bft)
29.05.2013 12:34 9,7 C 9,0 C 97 % 1000,6 hPa 0,0 l/m 0 min 2 min 0,0 UV-I 95 W/m 7,7 km/h (2 Bft)
29.05.2013 12:36 9,7 C 9,0 C 96 % 1000,6 hPa 0,0 l/m 0 min 2 min 0,0 UV-I 97 W/m 2,6 km/h (1 Bft)
29.05.2013 12:38 9,7 C 9,0 C 96 % 1000,6 hPa 0,0 l/m 0 min 2 min 0,0 UV-I 81 W/m 5,1 km/h (1 Bft)
29.05.2013 12:40 9,7 C 9,0 C 96 % 1000,6 hPa 0,0 l/m 0 min 2 min 0,0 UV-I 74 W/m 5,1 km/h (1 Bft)
29.05.2013 12:42 9,8 C 9,0 C 96 % 1000,7 hPa 0,0 l/m 0 min 2 min 0,0 UV-I 74 W/m 10,3 km/h (2 Bft)
29.05.2013 12:44 9,7 C 9,0 C 96 % 1000,7 hPa 0,2 l/m 0 min 2 min 0,0 UV-I 74 W/m 5,1 km/h (1 Bft)
29.05.2013 12:46 9,8 C 9,0 C 96 % 1000,7 hPa 0,0 l/m 0 min 2 min 0,0 UV-I 67 W/m 5,1 km/h (1 Bft)
29.05.2013 12:48 9,8 C 9,0 C 96 % 1000,7 hPa 0,0 l/m 0 min 2 min 0,0 UV-I 65 W/m 2,6 km/h (1 Bft)
29.05.2013 12:50 9,8 C 9,0 C 96 % 1000,7 hPa 0,0 l/m 0 min 2 min 0,0 UV-I 67 W/m 12,9 km/h (3 Bft)
29.05.2013 12:52 9,8 C 9,0 C 96 % 1000,7 hPa 0,0 l/m 0 min 2 min 0,0 UV-I 84 W/m 10,3 km/h (2 Bft)
29.05.2013 12:54 9,7 C 9,0 C 96 % 1000,8 hPa 0,2 l/m 0 min 2 min 0,0 UV-I 81 W/m 10,3 km/h (2 Bft)
29.05.2013 12:56 9,7 C 9,0 C 96 % 1000,7 hPa 0,0 l/m 0 min 2 min 0,0 UV-I 77 W/m 7,7 km/h (2 Bft)
29.05.2013 12:58 9,7 C 9,0 C 96 % 1000,8 hPa 0,0 l/m 0 min 2 min 0,0 UV-I 74 W/m 7,7 km/h (2 Bft)
29.05.2013 13:00 9,7 C 9,0 C 96 % 1000,8 hPa 0,0 l/m 0 min 2 min 0,0 UV-I 76 W/m 12,9 km/h (3 Bft)
29.05.2013 13:02 9,7 C 9,0 C 96 % 1000,9 hPa 0,0 l/m 0 min 2 min 0,0 UV-I 62 W/m 12,9 km/h (3 Bft)
29.05.2013 13:04 9,7 C 9,0 C 96 % 1000,8 hPa 0,2 l/m 0 min 2 min 0,0 UV-I 67 W/m 2,6 km/h (1 Bft)
29.05.2013 13:06 9,7 C 9,0 C 96 % 1000,9 hPa 0,0 l/m 0 min 2 min 0,0 UV-I 65 W/m 0,0 km/h (0 Bft)
29.05.2013 13:08 9,7 C 9,0 C 96 % 1000,9 hPa 0,0 l/m 0 min 2 min 0,0 UV-I 60 W/m 0,0 km/h (0 Bft)
29.05.2013 13:10 9,7 C 9,0 C 96 % 1000,8 hPa 0,0 l/m 0 min 2 min 0,0 UV-I 62 W/m 12,9 km/h (3 Bft)
29.05.2013 13:12 9,7 C 9,0 C 96 % 1000,8 hPa 0,2 l/m 0 min 2 min 0,0 UV-I 54 W/m 10,3 km/h (2 Bft)
29.05.2013 13:14 9,7 C 9,0 C 96 % 1000,8 hPa 0,0 l/m 0 min 2 min 0,0 UV-I 69 W/m 20,6 km/h (4 Bft)
29.05.2013 13:16 9,7 C 9,0 C 96 % 1000,9 hPa 0,0 l/m 0 min 2 min 0,0 UV-I 63 W/m 2,6 km/h (1 Bft)
29.05.2013 13:18 9,7 C 9,0 C 96 % 1000,9 hPa 0,0 l/m 0 min 2 min 0,0 UV-I 58 W/m 2,6 km/h (1 Bft)
29.05.2013 13:20 9,7 C 9,0 C 96 % 1000,9 hPa 0,0 l/m 0 min 2 min 0,0 UV-I 63 W/m 12,9 km/h (3 Bft)
29.05.2013 13:22 9,7 C 9,0 C 96 % 1001,0 hPa 0,2 l/m 0 min 2 min 0,0 UV-I 72 W/m 12,9 km/h (3 Bft)
29.05.2013 13:24 9,7 C 9,0 C 96 % 1001,0 hPa 0,0 l/m 0 min 2 min 0,0 UV-I 76 W/m 10,3 km/h (2 Bft)
29.05.2013 13:26 9,7 C 9,0 C 96 % 1001,0 hPa 0,0 l/m 0 min 2 min 0,0 UV-I 81 W/m 0,0 km/h (0 Bft)
29.05.2013 13:28 9,7 C 9,0 C 96 % 1001,0 hPa 0,0 l/m 0 min 2 min 0,0 UV-I 86 W/m 2,6 km/h (1 Bft)
29.05.2013 13:30 9,7 C 9,0 C 96 % 1001,0 hPa 0,0 l/m 0 min 2 min 0,0 UV-I 84 W/m 0,0 km/h (0 Bft)
29.05.2013 13:32 9,7 C 9,0 C 96 % 1001,0 hPa 0,2 l/m 0 min 2 min 0,0 UV-I 77 W/m 18,0 km/h (3 Bft)
29.05.2013 13:34 9,7 C 9,0 C 96 % 1001,0 hPa 0,0 l/m 0 min 2 min 0,0 UV-I 86 W/m 10,3 km/h (2 Bft)
29.05.2013 13:36 9,7 C 9,0 C 96 % 1001,0 hPa 0,0 l/m 0 min 2 min 0,0 UV-I 88 W/m 12,9 km/h (3 Bft)
29.05.2013 13:38 9,7 C 9,0 C 96 % 1001,1 hPa 0,0 l/m 0 min 2 min 0,0 UV-I 70 W/m 18,0 km/h (3 Bft)
29.05.2013 13:40 9,7 C 9,0 C 96 % 1001,1 hPa 0,0 l/m 0 min 2 min 0,0 UV-I 70 W/m 12,9 km/h (3 Bft)
29.05.2013 13:42 9,6 C 8,4 C 96 % 1001,1 hPa 0,0 l/m 0 min 2 min 0,0 UV-I 70 W/m 18,0 km/h (3 Bft)
29.05.2013 13:44 9,6 C 8,4 C 96 % 1001,2 hPa 0,0 l/m 0 min 2 min 0,0 UV-I 79 W/m 10,3 km/h (2 Bft)
29.05.2013 13:46 9,6 C 9,0 C 96 % 1001,2 hPa 0,0 l/m 0 min 2 min 0,0 UV-I 84 W/m 2,6 km/h (1 Bft)
29.05.2013 13:48 9,6 C 9,0 C 96 % 1001,2 hPa 0,0 l/m 0 min 2 min 0,0 UV-I 86 W/m 7,7 km/h (2 Bft)
29.05.2013 13:50 9,6 C 9,0 C 96 % 1001,1 hPa 0,0 l/m 0 min 2 min 0,0 UV-I 84 W/m 2,6 km/h (1 Bft)
29.05.2013 13:52 9,6 C 9,0 C 96 % 1001,1 hPa 0,0 l/m 0 min 2 min 0,0 UV-I 79 W/m 5,1 km/h (1 Bft)
29.05.2013 13:54 9,6 C 9,0 C 96 % 1001,1 hPa 0,0 l/m 0 min 2 min 0,0 UV-I 77 W/m 0,0 km/h (0 Bft)
29.05.2013 13:56 9,6 C 9,0 C 96 % 1001,1 hPa 0,0 l/m 0 min 2 min 0,0 UV-I 77 W/m 7,7 km/h (2 Bft)
29.05.2013 13:58 9,6 C 9,0 C 96 % 1001,1 hPa 0,0 l/m 0 min 2 min 0,0 UV-I 77 W/m 7,7 km/h (2 Bft)
29.05.2013 14:00 9,6 C 9,0 C 96 % 1001,1 hPa 0,2 l/m 0 min 2 min 0,0 UV-I 72 W/m 5,1 km/h (1 Bft)
29.05.2013 14:02 9,6 C 9,0 C 96 % 1001,1 hPa 0,0 l/m 0 min 2 min 0,0 UV-I 77 W/m 2,6 km/h (1 Bft)
29.05.2013 14:04 9,7 C 9,0 C 96 % 1001,1 hPa 0,0 l/m 0 min 2 min 0,0 UV-I 77 W/m 12,9 km/h (3 Bft)
29.05.2013 14:06 9,7 C 9,0 C 96 % 1001,2 hPa 0,0 l/m 0 min 2 min 0,0 UV-I 79 W/m 10,3 km/h (2 Bft)
29.05.2013 14:08 9,7 C 9,0 C 96 % 1001,2 hPa 0,0 l/m 0 min 2 min 0,0 UV-I 76 W/m 5,1 km/h (1 Bft)
29.05.2013 14:10 9,7 C 9,0 C 96 % 1001,2 hPa 0,0 l/m 0 min 2 min 0,0 UV-I 95 W/m 5,1 km/h (1 Bft)
29.05.2013 14:12 9,7 C 9,0 C 96 % 1001,2 hPa 0,0 l/m 0 min 2 min 0,0 UV-I 88 W/m 10,3 km/h (2 Bft)
29.05.2013 14:14 9,8 C 9,0 C 96 % 1001,2 hPa 0,2 l/m 0 min 2 min 0,0 UV-I 62 W/m 5,1 km/h (1 Bft)
29.05.2013 14:16 9,8 C 9,0 C 96 % 1001,2 hPa 0,0 l/m 0 min 2 min 0,0 UV-I 84 W/m 15,4 km/h (3 Bft)
29.05.2013 14:18 9,8 C 9,0 C 96 % 1001,2 hPa 0,0 l/m 0 min 2 min 0,0 UV-I 83 W/m 10,3 km/h (2 Bft)
29.05.2013 14:20 9,8 C 9,0 C 96 % 1001,2 hPa 0,0 l/m 0 min 2 min 0,0 UV-I 67 W/m 0,0 km/h (0 Bft)
29.05.2013 14:22 9,8 C 9,0 C 96 % 1001,2 hPa 0,0 l/m 0 min 2 min 0,0 UV-I 67 W/m 10,3 km/h (2 Bft)
29.05.2013 14:24 9,8 C 9,0 C 96 % 1001,2 hPa 0,0 l/m 0 min 2 min 0,0 UV-I 72 W/m 5,1 km/h (1 Bft)
29.05.2013 14:26 9,8 C 9,0 C 96 % 1001,2 hPa 0,2 l/m 0 min 2 min 0,0 UV-I 86 W/m 5,1 km/h (1 Bft)
29.05.2013 14:28 9,8 C 9,0 C 96 % 1001,2 hPa 0,0 l/m 0 min 2 min 0,0 UV-I 114 W/m 7,7 km/h (2 Bft)
29.05.2013 14:30 9,9 C 9,6 C 96 % 1001,2 hPa 0,0 l/m 0 min 2 min 0,0 UV-I 134 W/m 0,0 km/h (0 Bft)
29.05.2013 14:32 9,9 C 9,6 C 96 % 1001,3 hPa 0,0 l/m 0 min 2 min 0,0 UV-I 91 W/m 15,4 km/h (3 Bft)
29.05.2013 14:34 9,9 C 9,0 C 96 % 1001,2 hPa 0,0 l/m 0 min 2 min 0,0 UV-I 91 W/m 7,7 km/h (2 Bft)
29.05.2013 14:36 9,9 C 9,0 C 96 % 1001,3 hPa 0,0 l/m 0 min 2 min 0,0 UV-I 84 W/m 2,6 km/h (1 Bft)
29.05.2013 14:38 9,9 C 9,0 C 96 % 1001,2 hPa 0,2 l/m 0 min 2 min 0,0 UV-I 93 W/m 10,3 km/h (2 Bft)
29.05.2013 14:40 9,9 C 9,0 C 97 % 1001,2 hPa 0,0 l/m 0 min 2 min 0,0 UV-I 109 W/m 12,9 km/h (3 Bft)
29.05.2013 14:42 9,9 C 9,0 C 96 % 1001,3 hPa 0,0 l/m 0 min 2 min 0,0 UV-I 79 W/m 18,0 km/h (3 Bft)
29.05.2013 14:44 9,9 C 9,0 C 97 % 1001,3 hPa 0,0 l/m 0 min 2 min 0,0 UV-I 105 W/m 5,1 km/h (1 Bft)
29.05.2013 14:46 9,9 C 9,0 C 97 % 1001,2 hPa 0,0 l/m 0 min 2 min 0,0 UV-I 93 W/m 7,7 km/h (2 Bft)
29.05.2013 14:48 9,9 C 9,6 C 97 % 1001,3 hPa 0,0 l/m 0 min 2 min 0,0 UV-I 90 W/m 5,1 km/h (1 Bft)
29.05.2013 14:50 9,9 C 9,6 C 97 % 1001,3 hPa 0,0 l/m 0 min 2 min 0,0 UV-I 84 W/m 7,7 km/h (2 Bft)
29.05.2013 14:52 9,9 C 9,6 C 97 % 1001,3 hPa 0,0 l/m 0 min 2 min 0,0 UV-I 79 W/m 15,4 km/h (3 Bft)
29.05.2013 14:54 10,0 C 9,6 C 97 % 1001,3 hPa 0,0 l/m 0 min 2 min 0,0 UV-I 93 W/m 7,7 km/h (2 Bft)
29.05.2013 14:56 10,0 C 9,6 C 97 % 1001,3 hPa 0,0 l/m 0 min 2 min 0,0 UV-I 100 W/m 2,6 km/h (1 Bft)
29.05.2013 14:58 10,0 C 9,6 C 97 % 1001,2 hPa 0,0 l/m 0 min 2 min 0,0 UV-I 97 W/m 10,3 km/h (2 Bft)
29.05.2013 15:00 10,0 C 9,0 C 97 % 1001,3 hPa 0,0 l/m 0 min 2 min 0,0 UV-I 102 W/m 15,4 km/h (3 Bft)
29.05.2013 15:02 9,9 C 9,0 C 97 % 1001,3 hPa 0,0 l/m 0 min 2 min 0,0 UV-I 120 W/m 10,3 km/h (2 Bft)
29.05.2013 15:04 9,9 C 9,6 C 97 % 1001,2 hPa 0,0 l/m 0 min 2 min 0,0 UV-I 123 W/m 10,3 km/h (2 Bft)
29.05.2013 15:06 9,9 C 9,6 C 97 % 1001,2 hPa 0,0 l/m 0 min 2 min 0,0 UV-I 123 W/m 10,3 km/h (2 Bft)
29.05.2013 15:08 10,0 C 9,6 C 97 % 1001,3 hPa 0,0 l/m 0 min 2 min 0,0 UV-I 125 W/m 2,6 km/h (1 Bft)
29.05.2013 15:10 10,0 C 9,6 C 97 % 1001,3 hPa 0,0 l/m 0 min 2 min 0,0 UV-I 123 W/m 7,7 km/h (2 Bft)
29.05.2013 15:12 10,0 C 9,6 C 97 % 1001,3 hPa 0,0 l/m 0 min 2 min 0,0 UV-I 121 W/m 10,3 km/h (2 Bft)
29.05.2013 15:14 10,0 C 9,6 C 97 % 1001,3 hPa 0,0 l/m 0 min 2 min 0,0 UV-I 109 W/m 18,0 km/h (3 Bft)
29.05.2013 15:16 10,0 C 9,6 C 97 % 1001,3 hPa 0,0 l/m 0 min 2 min 0,0 UV-I 109 W/m 7,7 km/h (2 Bft)
29.05.2013 15:18 10,0 C 9,6 C 97 % 1001,3 hPa 0,0 l/m 0 min 2 min 0,0 UV-I 105 W/m 20,6 km/h (4 Bft)
29.05.2013 15:20 10,0 C 9,6 C 97 % 1001,3 hPa 0,0 l/m 0 min 2 min 0,0 UV-I 104 W/m 12,9 km/h (3 Bft)
29.05.2013 15:22 10,0 C 9,0 C 97 % 1001,3 hPa 0,0 l/m 0 min 2 min 0,0 UV-I 114 W/m 10,3 km/h (2 Bft)
29.05.2013 15:24 10,0 C 9,6 C 97 % 1001,3 hPa 0,0 l/m 0 min 2 min 0,0 UV-I 116 W/m 7,7 km/h (2 Bft)
29.05.2013 15:26 10,0 C 9,6 C 97 % 1001,3 hPa 0,0 l/m 0 min 2 min 0,0 UV-I 111 W/m 12,9 km/h (3 Bft)
29.05.2013 15:28 10,0 C 9,6 C 97 % 1001,3 hPa 0,0 l/m 0 min 2 min 0,0 UV-I 105 W/m 15,4 km/h (3 Bft)
29.05.2013 15:30 10,0 C 9,0 C 97 % 1001,3 hPa 0,0 l/m 0 min 2 min 0,0 UV-I 102 W/m 12,9 km/h (3 Bft)
29.05.2013 15:32 10,0 C 9,6 C 97 % 1001,3 hPa 0,0 l/m 0 min 2 min 0,0 UV-I 98 W/m 7,7 km/h (2 Bft)
29.05.2013 15:34 10,0 C 9,6 C 97 % 1001,3 hPa 0,0 l/m 0 min 2 min 0,0 UV-I 98 W/m 7,7 km/h (2 Bft)
29.05.2013 15:36 10,0 C 9,6 C 97 % 1001,4 hPa 0,0 l/m 0 min 0 min 0,0 UV-I 74 W/m 10,3 km/h (2 Bft)
29.05.2013 15:38 10,0 C 9,6 C 97 % 1001,4 hPa 0,0 l/m 0 min 0 min 0,0 UV-I 60 W/m 10,3 km/h (2 Bft)
29.05.2013 15:40 10,1 C 9,0 C 97 % 1001,4 hPa 0,0 l/m 0 min 2 min 0,0 UV-I 69 W/m 0,0 km/h (0 Bft)
29.05.2013 15:42 10,1 C 9,0 C 97 % 1001,4 hPa 0,0 l/m 0 min 0 min 0,0 UV-I 79 W/m 2,6 km/h (1 Bft)
29.05.2013 15:44 10,1 C 9,0 C 97 % 1001,3 hPa 0,0 l/m 0 min 0 min 0,0 UV-I 79 W/m 15,4 km/h (3 Bft)
29.05.2013 15:46 10,0 C 9,0 C 97 % 1001,4 hPa 0,0 l/m 0 min 0 min 0,0 UV-I 77 W/m 12,9 km/h (3 Bft)
29.05.2013 15:48 10,0 C 9,0 C 96 % 1001,4 hPa 0,0 l/m 0 min 0 min 0,0 UV-I 76 W/m 10,3 km/h (2 Bft)
29.05.2013 15:50 9,9 C 9,0 C 96 % 1001,4 hPa 0,0 l/m 0 min 0 min 0,0 UV-I 76 W/m 10,3 km/h (2 Bft)
29.05.2013 15:52 9,9 C 9,0 C 96 % 1001,4 hPa 0,0 l/m 0 min 2 min 0,0 UV-I 81 W/m 5,1 km/h (1 Bft)
29.05.2013 15:54 9,9 C 9,0 C 96 % 1001,3 hPa 0,0 l/m 0 min 2 min 0,0 UV-I 81 W/m 12,9 km/h (3 Bft)
29.05.2013 15:56 9,9 C 9,0 C 96 % 1001,4 hPa 0,0 l/m 0 min 0 min 0,0 UV-I 83 W/m 7,7 km/h (2 Bft)
29.05.2013 15:58 9,9 C 9,0 C 96 % 1001,4 hPa 0,0 l/m 0 min 0 min 0,0 UV-I 77 W/m 0,0 km/h (0 Bft)
29.05.2013 16:00 9,9 C 9,0 C 96 % 1001,4 hPa 0,0 l/m 0 min 2 min 0,0 UV-I 77 W/m 2,6 km/h (1 Bft)
29.05.2013 16:02 9,9 C 9,6 C 96 % 1001,4 hPa 0,0 l/m 0 min 2 min 0,0 UV-I 72 W/m 2,6 km/h (1 Bft)
29.05.2013 16:06 9,9 C 9,0 C 96 % 1001,4 hPa 0,0 l/m 0 min 2 min 0,0 UV-I 88 W/m 15,4 km/h (3 Bft)
29.05.2013 16:08 9,9 C 9,0 C 96 % 1001,4 hPa 0,0 l/m 0 min 2 min 0,0 UV-I 88 W/m 12,9 km/h (3 Bft)
29.05.2013 16:10 9,9 C 9,0 C 96 % 1001,4 hPa 0,0 l/m 0 min 2 min 0,0 UV-I 74 W/m 0,0 km/h (0 Bft)
29.05.2013 16:12 9,9 C 9,0 C 96 % 1001,3 hPa 0,0 l/m 0 min 2 min 0,0 UV-I 74 W/m 18,0 km/h (3 Bft)
29.05.2013 16:14 10,0 C 9,0 C 96 % 1001,4 hPa 0,0 l/m 0 min 2 min 0,0 UV-I 67 W/m 10,3 km/h (2 Bft)
29.05.2013 16:16 10,0 C 9,0 C 96 % 1001,5 hPa 0,0 l/m 0 min 2 min 0,0 UV-I 72 W/m 15,4 km/h (3 Bft)
29.05.2013 16:18 10,0 C 9,0 C 96 % 1001,4 hPa 0,0 l/m 0 min 2 min 0,0 UV-I 74 W/m 10,3 km/h (2 Bft)
29.05.2013 16:20 10,0 C 9,0 C 96 % 1001,5 hPa 0,0 l/m 0 min 2 min 0,0 UV-I 81 W/m 18,0 km/h (3 Bft)
29.05.2013 16:22 10,0 C 9,0 C 96 % 1001,5 hPa 0,0 l/m 0 min 2 min 0,0 UV-I 79 W/m 7,7 km/h (2 Bft)
29.05.2013 16:24 10,0 C 9,0 C 96 % 1001,5 hPa 0,2 l/m 0 min 2 min 0,0 UV-I 77 W/m 12,9 km/h (3 Bft)
29.05.2013 16:26 10,0 C 9,0 C 96 % 1001,4 hPa 0,0 l/m 0 min 2 min 0,0 UV-I 76 W/m 5,1 km/h (1 Bft)
29.05.2013 16:28 10,0 C 9,0 C 96 % 1001,4 hPa 0,0 l/m 0 min 2 min 0,0 UV-I 76 W/m 15,4 km/h (3 Bft)
29.05.2013 16:30 10,0 C 9,0 C 96 % 1001,4 hPa 0,0 l/m 0 min 2 min 0,0 UV-I 77 W/m 10,3 km/h (2 Bft)
29.05.2013 16:32 10,1 C 9,0 C 96 % 1001,4 hPa 0,0 l/m 0 min 2 min 0,0 UV-I 65 W/m 10,3 km/h (2 Bft)
29.05.2013 16:34 10,0 C 9,0 C 96 % 1001,5 hPa 0,2 l/m 0 min 2 min 0,0 UV-I 65 W/m 10,3 km/h (2 Bft)
29.05.2013 16:36 10,1 C 9,0 C 96 % 1001,5 hPa 0,0 l/m 0 min 2 min 0,0 UV-I 69 W/m 7,7 km/h (2 Bft)
29.05.2013 16:38 10,1 C 9,6 C 96 % 1001,5 hPa 0,0 l/m 0 min 2 min 0,0 UV-I 77 W/m 15,4 km/h (3 Bft)
29.05.2013 16:40 10,1 C 9,6 C 96 % 1001,5 hPa 0,0 l/m 0 min 2 min 0,0 UV-I 109 W/m 15,4 km/h (3 Bft)
29.05.2013 16:42 10,1 C 9,6 C 96 % 1001,5 hPa 0,0 l/m 0 min 2 min 0,0 UV-I 77 W/m 20,6 km/h (4 Bft)
29.05.2013 16:44 10,1 C 9,0 C 96 % 1001,5 hPa 0,0 l/m 0 min 2 min 0,0 UV-I 56 W/m 7,7 km/h (2 Bft)
29.05.2013 16:46 10,1 C 9,0 C 96 % 1001,5 hPa 0,0 l/m 0 min 2 min 0,0 UV-I 58 W/m 0,0 km/h (0 Bft)
29.05.2013 16:48 10,1 C 9,0 C 96 % 1001,5 hPa 0,2 l/m 0 min 2 min 0,0 UV-I 65 W/m 15,4 km/h (3 Bft)
29.05.2013 16:50 10,1 C 9,0 C 96 % 1001,5 hPa 0,0 l/m 0 min 2 min 0,0 UV-I 67 W/m 7,7 km/h (2 Bft)
29.05.2013 16:52 10,1 C 9,0 C 96 % 1001,6 hPa 0,0 l/m 0 min 2 min 0,0 UV-I 63 W/m 12,9 km/h (3 Bft)
29.05.2013 16:54 10,1 C 9,0 C 96 % 1001,6 hPa 0,0 l/m 0 min 2 min 0,0 UV-I 91 W/m 0,0 km/h (0 Bft)
29.05.2013 16:56 10,1 C 9,6 C 96 % 1001,6 hPa 0,0 l/m 0 min 2 min 0,0 UV-I 70 W/m 7,7 km/h (2 Bft)
29.05.2013 16:58 10,1 C 9,0 C 96 % 1001,6 hPa 0,0 l/m 0 min 2 min 0,0 UV-I 51 W/m 12,9 km/h (3 Bft)
29.05.2013 17:00 10,1 C 9,0 C 96 % 1001,6 hPa 0,0 l/m 0 min 2 min 0,0 UV-I 58 W/m 10,3 km/h (2 Bft)
29.05.2013 17:02 10,1 C 9,0 C 96 % 1001,6 hPa 0,0 l/m 0 min 2 min 0,0 UV-I 49 W/m 10,3 km/h (2 Bft)
29.05.2013 17:04 10,1 C 9,0 C 96 % 1001,5 hPa 0,2 l/m 0 min 2 min 0,0 UV-I 49 W/m 7,7 km/h (2 Bft)
29.05.2013 17:06 10,1 C 9,0 C 96 % 1001,6 hPa 0,0 l/m 0 min 2 min 0,0 UV-I 77 W/m 0,0 km/h (0 Bft)
29.05.2013 17:08 10,1 C 9,0 C 96 % 1001,6 hPa 0,0 l/m 0 min 2 min 0,0 UV-I 62 W/m 7,7 km/h (2 Bft)
29.05.2013 17:10 10,1 C 9,0 C 96 % 1001,6 hPa 0,0 l/m 0 min 2 min 0,0 UV-I 51 W/m 10,3 km/h (2 Bft)
29.05.2013 17:12 10,1 C 9,0 C 96 % 1001,6 hPa 0,0 l/m 0 min 2 min 0,0 UV-I 47 W/m 5,1 km/h (1 Bft)
29.05.2013 17:14 10,1 C 9,0 C 96 % 1001,6 hPa 0,0 l/m 0 min 2 min 0,0 UV-I 56 W/m 10,3 km/h (2 Bft)
29.05.2013 17:16 10,1 C 9,0 C 96 % 1001,5 hPa 0,0 l/m 0 min 2 min 0,0 UV-I 49 W/m 5,1 km/h (1 Bft)
29.05.2013 17:18 10,1 C 9,0 C 96 % 1001,5 hPa 0,0 l/m 0 min 2 min 0,0 UV-I 63 W/m 18,0 km/h (3 Bft)
29.05.2013 17:20 10,1 C 9,6 C 96 % 1001,6 hPa 0,0 l/m 0 min 2 min 0,0 UV-I 76 W/m 7,7 km/h (2 Bft)
29.05.2013 17:22 10,1 C 9,0 C 96 % 1001,6 hPa 0,0 l/m 0 min 2 min 0,0 UV-I 69 W/m 2,6 km/h (1 Bft)
29.05.2013 17:24 10,1 C 9,6 C 97 % 1001,6 hPa 0,0 l/m 0 min 2 min 0,0 UV-I 67 W/m 5,1 km/h (1 Bft)
29.05.2013 17:26 10,1 C 9,6 C 97 % 1001,6 hPa 0,0 l/m 0 min 2 min 0,0 UV-I 62 W/m 2,6 km/h (1 Bft)
29.05.2013 17:28 10,1 C 9,6 C 97 % 1001,6 hPa 0,0 l/m 0 min 2 min 0,0 UV-I 47 W/m 5,1 km/h (1 Bft)
29.05.2013 17:30 10,1 C 9,0 C 97 % 1001,6 hPa 0,0 l/m 0 min 2 min 0,0 UV-I 53 W/m 10,3 km/h (2 Bft)
29.05.2013 17:32 10,1 C 9,0 C 97 % 1001,6 hPa 0,0 l/m 0 min 2 min 0,0 UV-I 60 W/m 7,7 km/h (2 Bft)
29.05.2013 17:34 10,1 C 9,0 C 97 % 1001,5 hPa 0,0 l/m 0 min 2 min 0,0 UV-I 58 W/m 12,9 km/h (3 Bft)
29.05.2013 17:36 10,1 C 9,0 C 97 % 1001,6 hPa 0,2 l/m 0 min 2 min 0,0 UV-I 53 W/m 5,1 km/h (1 Bft)
29.05.2013 17:38 10,1 C 9,0 C 97 % 1001,6 hPa 0,0 l/m 0 min 2 min 0,0 UV-I 60 W/m 10,3 km/h (2 Bft)
29.05.2013 17:40 10,1 C 9,0 C 97 % 1001,6 hPa 0,0 l/m 0 min 2 min 0,0 UV-I 51 W/m 0,0 km/h (0 Bft)
29.05.2013 17:42 10,1 C 9,0 C 97 % 1001,6 hPa 0,0 l/m 0 min 2 min 0,0 UV-I 51 W/m 0,0 km/h (0 Bft)
29.05.2013 17:44 10,1 C 9,0 C 97 % 1001,6 hPa 0,0 l/m 0 min 2 min 0,0 UV-I 44 W/m 2,6 km/h (1 Bft)
29.05.2013 17:46 10,1 C 9,0 C 97 % 1001,6 hPa 0,0 l/m 0 min 2 min 0,0 UV-I 47 W/m 12,9 km/h (3 Bft)
29.05.2013 17:48 10,1 C 9,0 C 97 % 1001,6 hPa 0,0 l/m 0 min 2 min 0,0 UV-I 44 W/m 7,7 km/h (2 Bft)
29.05.2013 17:50 10,1 C 9,0 C 97 % 1001,6 hPa 0,0 l/m 0 min 2 min 0,0 UV-I 49 W/m 0,0 km/h (0 Bft)
29.05.2013 17:52 10,1 C 9,0 C 97 % 1001,6 hPa 0,2 l/m 0 min 2 min 0,0 UV-I 51 W/m 0,0 km/h (0 Bft)
29.05.2013 17:54 10,1 C 9,0 C 97 % 1001,6 hPa 0,0 l/m 0 min 2 min 0,0 UV-I 40 W/m 10,3 km/h (2 Bft)
29.05.2013 17:56 10,1 C 9,0 C 97 % 1001,7 hPa 0,0 l/m 0 min 2 min 0,0 UV-I 39 W/m 5,1 km/h (1 Bft)
29.05.2013 17:58 10,1 C 9,0 C 97 % 1001,6 hPa 0,0 l/m 0 min 2 min 0,0 UV-I 53 W/m 12,9 km/h (3 Bft)
29.05.2013 18:00 10,1 C 9,0 C 97 % 1001,7 hPa 0,0 l/m 0 min 2 min 0,0 UV-I 47 W/m 7,7 km/h (2 Bft)
29.05.2013 18:02 10,1 C 9,0 C 97 % 1001,7 hPa 0,0 l/m 0 min 2 min 0,0 UV-I 58 W/m 2,6 km/h (1 Bft)
29.05.2013 18:06 10,1 C 9,6 C 97 % 1001,7 hPa 0,0 l/m 0 min 2 min 0,0 UV-I 70 W/m 0,0 km/h (0 Bft)
29.05.2013 18:08 10,1 C 9,6 C 97 % 1001,8 hPa 0,0 l/m 0 min 2 min 0,0 UV-I 79 W/m 7,7 km/h (2 Bft)
29.05.2013 18:10 10,1 C 9,6 C 97 % 1001,8 hPa 0,0 l/m 0 min 2 min 0,0 UV-I 72 W/m 7,7 km/h (2 Bft)
29.05.2013 18:12 10,2 C 9,6 C 97 % 1001,8 hPa 0,2 l/m 0 min 2 min 0,0 UV-I 69 W/m 2,6 km/h (1 Bft)
29.05.2013 18:14 10,2 C 9,6 C 97 % 1001,8 hPa 0,0 l/m 0 min 2 min 0,0 UV-I 69 W/m 5,1 km/h (1 Bft)
29.05.2013 18:16 10,2 C 9,6 C 97 % 1001,8 hPa 0,0 l/m 0 min 2 min 0,0 UV-I 67 W/m 7,7 km/h (2 Bft)
29.05.2013 18:18 10,2 C 9,6 C 97 % 1001,8 hPa 0,0 l/m 0 min 2 min 0,0 UV-I 65 W/m 7,7 km/h (2 Bft)
29.05.2013 18:20 10,2 C 9,6 C 97 % 1001,9 hPa 0,0 l/m 0 min 2 min 0,0 UV-I 65 W/m 7,7 km/h (2 Bft)
29.05.2013 18:22 10,2 C 9,6 C 97 % 1001,8 hPa 0,0 l/m 0 min 2 min 0,0 UV-I 60 W/m 2,6 km/h (1 Bft)
29.05.2013 18:24 10,2 C 9,6 C 97 % 1001,9 hPa 0,0 l/m 0 min 2 min 0,0 UV-I 60 W/m 0,0 km/h (0 Bft)
29.05.2013 18:26 10,2 C 9,6 C 97 % 1001,9 hPa 0,2 l/m 0 min 2 min 0,0 UV-I 54 W/m 0,0 km/h (0 Bft)
29.05.2013 18:28 10,2 C 9,6 C 97 % 1001,9 hPa 0,0 l/m 0 min 2 min 0,0 UV-I 44 W/m 0,0 km/h (0 Bft)
29.05.2013 18:30 10,2 C 9,6 C 97 % 1001,9 hPa 0,0 l/m 0 min 2 min 0,0 UV-I 42 W/m 0,0 km/h (0 Bft)
29.05.2013 18:32 10,2 C 9,6 C 97 % 1001,9 hPa 0,0 l/m 0 min 2 min 0,0 UV-I 39 W/m 0,0 km/h (0 Bft)
29.05.2013 18:34 10,2 C 9,6 C 97 % 1001,9 hPa 0,0 l/m 0 min 2 min 0,0 UV-I 28 W/m 0,0 km/h (0 Bft)
29.05.2013 18:36 10,2 C 9,6 C 97 % 1002,0 hPa 0,0 l/m 0 min 2 min 0,0 UV-I 26 W/m 0,0 km/h (0 Bft)
29.05.2013 18:38 10,2 C 9,6 C 97 % 1002,0 hPa 0,0 l/m 0 min 2 min 0,0 UV-I 30 W/m 0,0 km/h (0 Bft)
29.05.2013 18:40 10,2 C 9,6 C 97 % 1001,9 hPa 0,2 l/m 0 min 2 min 0,0 UV-I 32 W/m 0,0 km/h (0 Bft)
29.05.2013 18:42 10,2 C 9,6 C 97 % 1002,0 hPa 0,0 l/m 0 min 2 min 0,0 UV-I 30 W/m 2,6 km/h (1 Bft)
29.05.2013 18:44 10,2 C 9,6 C 97 % 1001,9 hPa 0,0 l/m 0 min 2 min 0,0 UV-I 26 W/m 0,0 km/h (0 Bft)
29.05.2013 18:46 10,2 C 9,6 C 97 % 1002,0 hPa 0,0 l/m 0 min 2 min 0,0 UV-I 25 W/m 0,0 km/h (0 Bft)
29.05.2013 18:48 10,2 C 9,6 C 97 % 1002,0 hPa 0,0 l/m 0 min 2 min 0,0 UV-I 32 W/m 0,0 km/h (0 Bft)
29.05.2013 18:50 10,2 C 9,6 C 97 % 1002,0 hPa 0,2 l/m 0 min 2 min 0,0 UV-I 42 W/m 0,0 km/h (0 Bft)
29.05.2013 18:52 10,2 C 9,6 C 97 % 1002,1 hPa 0,0 l/m 0 min 2 min 0,0 UV-I 39 W/m 0,0 km/h (0 Bft)
29.05.2013 18:54 10,3 C 9,6 C 97 % 1002,1 hPa 0,0 l/m 0 min 2 min 0,0 UV-I 39 W/m 2,6 km/h (1 Bft)
29.05.2013 18:56 10,3 C 9,6 C 97 % 1002,1 hPa 0,0 l/m 0 min 2 min 0,0 UV-I 39 W/m 0,0 km/h (0 Bft)
29.05.2013 18:58 10,3 C 9,6 C 97 % 1002,0 hPa 0,0 l/m 0 min 2 min 0,0 UV-I 35 W/m 0,0 km/h (0 Bft)
29.05.2013 19:00 10,3 C 9,6 C 97 % 1002,1 hPa 0,0 l/m 0 min 2 min 0,0 UV-I 35 W/m 0,0 km/h (0 Bft)
29.05.2013 19:02 10,3 C 9,6 C 97 % 1002,1 hPa 0,2 l/m 0 min 2 min 0,0 UV-I 35 W/m 5,1 km/h (1 Bft)
29.05.2013 19:04 10,3 C 9,6 C 97 % 1002,1 hPa 0,0 l/m 0 min 2 min 0,0 UV-I 39 W/m 7,7 km/h (2 Bft)
29.05.2013 19:06 10,3 C 9,6 C 97 % 1002,1 hPa 0,0 l/m 0 min 2 min 0,0 UV-I 40 W/m 0,0 km/h (0 Bft)
29.05.2013 19:08 10,2 C 9,6 C 97 % 1002,2 hPa 0,0 l/m 0 min 2 min 0,0 UV-I 40 W/m 2,6 km/h (1 Bft)
29.05.2013 19:10 10,2 C 9,6 C 97 % 1002,2 hPa 0,0 l/m 0 min 2 min 0,0 UV-I 44 W/m 10,3 km/h (2 Bft)
29.05.2013 19:12 10,2 C 9,6 C 97 % 1002,2 hPa 0,2 l/m 0 min 2 min 0,0 UV-I 44 W/m 0,0 km/h (0 Bft)
29.05.2013 19:14 10,2 C 9,6 C 97 % 1002,2 hPa 0,0 l/m 0 min 2 min 0,0 UV-I 47 W/m 7,7 km/h (2 Bft)
29.05.2013 19:16 10,2 C 9,6 C 97 % 1002,1 hPa 0,0 l/m 0 min 2 min 0,0 UV-I 51 W/m 2,6 km/h (1 Bft)
29.05.2013 19:18 10,2 C 9,6 C 97 % 1002,3 hPa 0,0 l/m 0 min 2 min 0,0 UV-I 49 W/m 0,0 km/h (0 Bft)
29.05.2013 19:20 10,2 C 9,6 C 97 % 1002,2 hPa 0,0 l/m 0 min 2 min 0,0 UV-I 51 W/m 7,7 km/h (2 Bft)
29.05.2013 19:22 10,2 C 9,6 C 97 % 1002,2 hPa 0,0 l/m 0 min 2 min 0,0 UV-I 51 W/m 7,7 km/h (2 Bft)
29.05.2013 19:24 10,2 C 9,6 C 97 % 1002,2 hPa 0,0 l/m 0 min 2 min 0,0 UV-I 54 W/m 2,6 km/h (1 Bft)
29.05.2013 19:26 10,2 C 9,6 C 97 % 1002,3 hPa 0,0 l/m 0 min 2 min 0,0 UV-I 49 W/m 2,6 km/h (1 Bft)
29.05.2013 19:28 10,2 C 9,6 C 97 % 1002,3 hPa 0,0 l/m 0 min 2 min 0,0 UV-I 44 W/m 0,0 km/h (0 Bft)
29.05.2013 19:30 10,2 C 9,6 C 97 % 1002,3 hPa 0,2 l/m 0 min 2 min 0,0 UV-I 33 W/m 0,0 km/h (0 Bft)
29.05.2013 19:32 10,2 C 9,6 C 97 % 1002,2 hPa 0,0 l/m 0 min 2 min 0,0 UV-I 25 W/m 2,6 km/h (1 Bft)
29.05.2013 19:34 10,2 C 9,6 C 97 % 1002,3 hPa 0,0 l/m 0 min 2 min 0,0 UV-I 26 W/m 0,0 km/h (0 Bft)
29.05.2013 19:36 10,2 C 9,0 C 97 % 1002,3 hPa 0,0 l/m 0 min 2 min 0,0 UV-I 28 W/m 2,6 km/h (1 Bft)
29.05.2013 19:38 10,2 C 9,0 C 97 % 1002,3 hPa 0,0 l/m 0 min 2 min 0,0 UV-I 26 W/m 0,0 km/h (0 Bft)
29.05.2013 19:40 10,2 C 9,0 C 97 % 1002,4 hPa 0,0 l/m 0 min 2 min 0,0 UV-I 32 W/m 10,3 km/h (2 Bft)
29.05.2013 19:42 10,2 C 9,0 C 97 % 1002,4 hPa 0,0 l/m 0 min 2 min 0,0 UV-I 37 W/m 0,0 km/h (0 Bft)
29.05.2013 19:44 10,2 C 9,0 C 97 % 1002,4 hPa 0,0 l/m 0 min 2 min 0,0 UV-I 40 W/m 2,6 km/h (1 Bft)
29.05.2013 19:46 10,2 C 9,0 C 97 % 1002,4 hPa 0,0 l/m 0 min 2 min 0,0 UV-I 44 W/m 2,6 km/h (1 Bft)
29.05.2013 19:48 10,2 C 9,0 C 97 % 1002,4 hPa 0,2 l/m 0 min 2 min 0,0 UV-I 46 W/m 2,6 km/h (1 Bft)
29.05.2013 19:50 10,2 C 9,6 C 97 % 1002,4 hPa 0,0 l/m 0 min 2 min 0,0 UV-I 42 W/m 0,0 km/h (0 Bft)
29.05.2013 19:52 10,2 C 9,6 C 97 % 1002,4 hPa 0,0 l/m 0 min 2 min 0,0 UV-I 44 W/m 0,0 km/h (0 Bft)
29.05.2013 19:54 10,2 C 9,6 C 97 % 1002,4 hPa 0,0 l/m 0 min 2 min 0,0 UV-I 37 W/m 12,9 km/h (3 Bft)
29.05.2013 19:56 10,2 C 9,6 C 97 % 1002,4 hPa 0,0 l/m 0 min 2 min 0,0 UV-I 39 W/m 5,1 km/h (1 Bft)
29.05.2013 19:58 10,2 C 9,0 C 97 % 1002,4 hPa 0,0 l/m 0 min 2 min 0,0 UV-I 35 W/m 0,0 km/h (0 Bft)
29.05.2013 20:00 10,2 C 9,0 C 97 % 1002,4 hPa 0,0 l/m 0 min 2 min 0,0 UV-I 35 W/m 0,0 km/h (0 Bft)
29.05.2013 20:02 10,2 C 9,6 C 97 % 1002,4 hPa 0,0 l/m 0 min 2 min 0,0 UV-I 35 W/m 5,1 km/h (1 Bft)
29.05.2013 20:04 10,2 C 9,6 C 97 % 1002,4 hPa 0,0 l/m 0 min 2 min 0,0 UV-I 35 W/m 0,0 km/h (0 Bft)
29.05.2013 20:06 10,2 C 9,0 C 97 % 1002,5 hPa 0,0 l/m 0 min 2 min 0,0 UV-I 32 W/m 5,1 km/h (1 Bft)
29.05.2013 20:08 10,2 C 9,0 C 97 % 1002,5 hPa 0,0 l/m 0 min 2 min 0,0 UV-I 33 W/m 2,6 km/h (1 Bft)
29.05.2013 20:10 10,2 C 9,0 C 97 % 1002,5 hPa 0,0 l/m 0 min 2 min 0,0 UV-I 30 W/m 0,0 km/h (0 Bft)
29.05.2013 20:12 10,2 C 9,0 C 97 % 1002,5 hPa 0,0 l/m 0 min 2 min 0,0 UV-I 28 W/m 5,1 km/h (1 Bft)
29.05.2013 20:14 10,1 C 9,0 C 97 % 1002,5 hPa 0,0 l/m 0 min 2 min 0,0 UV-I 30 W/m 7,7 km/h (2 Bft)
29.05.2013 20:16 10,1 C 9,0 C 97 % 1002,5 hPa 0,0 l/m 0 min 2 min 0,0 UV-I 32 W/m 0,0 km/h (0 Bft)
29.05.2013 20:18 10,1 C 9,0 C 97 % 1002,5 hPa 0,0 l/m 0 min 2 min 0,0 UV-I 33 W/m 10,3 km/h (2 Bft)
29.05.2013 20:20 10,1 C 9,0 C 97 % 1002,6 hPa 0,0 l/m 0 min 2 min 0,0 UV-I 33 W/m 5,1 km/h (1 Bft)
29.05.2013 20:22 10,1 C 9,0 C 97 % 1002,6 hPa 0,0 l/m 0 min 2 min 0,0 UV-I 30 W/m 7,7 km/h (2 Bft)
29.05.2013 20:24 10,1 C 9,0 C 97 % 1002,5 hPa 0,0 l/m 0 min 2 min 0,0 UV-I 28 W/m 0,0 km/h (0 Bft)
29.05.2013 20:26 10,1 C 9,0 C 97 % 1002,6 hPa 0,0 l/m 0 min 2 min 0,0 UV-I 25 W/m 0,0 km/h (0 Bft)
29.05.2013 20:28 10,1 C 9,0 C 97 % 1002,6 hPa 0,0 l/m 0 min 2 min 0,0 UV-I 21 W/m 0,0 km/h (0 Bft)
29.05.2013 20:30 10,0 C 9,0 C 97 % 1002,6 hPa 0,0 l/m 0 min 2 min 0,0 UV-I 18 W/m 10,3 km/h (2 Bft)
29.05.2013 20:32 10,0 C 9,0 C 97 % 1002,7 hPa 0,0 l/m 0 min 2 min 0,0 UV-I 18 W/m 5,1 km/h (1 Bft)
29.05.2013 20:34 10,0 C 9,0 C 97 % 1002,7 hPa 0,0 l/m 0 min 2 min 0,0 UV-I 16 W/m 10,3 km/h (2 Bft)
29.05.2013 20:36 10,0 C 9,0 C 97 % 1002,7 hPa 0,0 l/m 0 min 2 min 0,0 UV-I 16 W/m 0,0 km/h (0 Bft)
29.05.2013 20:38 10,0 C 9,0 C 97 % 1002,7 hPa 0,0 l/m 0 min 2 min 0,0 UV-I 16 W/m 0,0 km/h (0 Bft)
29.05.2013 20:40 10,0 C 9,0 C 97 % 1002,7 hPa 0,0 l/m 0 min 0 min 0,0 UV-I 18 W/m 0,0 km/h (0 Bft)
29.05.2013 20:42 10,0 C 9,0 C 97 % 1002,7 hPa 0,0 l/m 0 min 0 min 0,0 UV-I 16 W/m 0,0 km/h (0 Bft)
29.05.2013 20:44 10,0 C 9,0 C 97 % 1002,8 hPa 0,0 l/m 0 min 2 min 0,0 UV-I 14 W/m 0,0 km/h (0 Bft)
29.05.2013 20:46 10,0 C 9,0 C 97 % 1002,8 hPa 0,0 l/m 0 min 0 min 0,0 UV-I 16 W/m 7,7 km/h (2 Bft)
29.05.2013 20:48 10,0 C 9,0 C 97 % 1002,8 hPa 0,0 l/m 0 min 0 min 0,0 UV-I 14 W/m 2,6 km/h (1 Bft)
29.05.2013 20:50 10,0 C 9,0 C 97 % 1002,9 hPa 0,0 l/m 0 min 2 min 0,0 UV-I 12 W/m 0,0 km/h (0 Bft)
29.05.2013 20:52 9,9 C 9,0 C 97 % 1002,9 hPa 0,0 l/m 0 min 2 min 0,0 UV-I 12 W/m 0,0 km/h (0 Bft)
29.05.2013 20:54 9,9 C 9,0 C 97 % 1002,9 hPa 0,0 l/m 0 min 0 min 0,0 UV-I 11 W/m 10,3 km/h (2 Bft)
29.05.2013 20:56 9,9 C 9,0 C 97 % 1002,9 hPa 0,0 l/m 0 min 2 min 0,0 UV-I 9 W/m 0,0 km/h (0 Bft)
29.05.2013 20:58 9,9 C 9,0 C 97 % 1002,8 hPa 0,0 l/m 0 min 2 min 0,0 UV-I 9 W/m 0,0 km/h (0 Bft)
29.05.2013 21:00 9,9 C 9,0 C 97 % 1002,9 hPa 0,0 l/m 0 min 2 min 0,0 UV-I 7 W/m 5,1 km/h (1 Bft)
29.05.2013 21:02 9,9 C 9,0 C 97 % 1002,9 hPa 0,0 l/m 0 min 2 min 0,0 UV-I 5 W/m 5,1 km/h (1 Bft)
29.05.2013 21:04 9,9 C 9,0 C 97 % 1002,9 hPa 0,0 l/m 0 min 2 min 0,0 UV-I 5 W/m 0,0 km/h (0 Bft)
29.05.2013 21:06 9,9 C 9,0 C 97 % 1002,9 hPa 0,0 l/m 0 min 2 min 0,0 UV-I 0 W/m 5,1 km/h (1 Bft)
29.05.2013 21:08 9,9 C 9,0 C 97 % 1003,0 hPa 0,0 l/m 0 min 0 min 0,0 UV-I 0 W/m 7,7 km/h (2 Bft)
29.05.2013 21:10 9,9 C 9,0 C 97 % 1002,9 hPa 0,0 l/m 0 min 0 min 0,0 UV-I 0 W/m 0,0 km/h (0 Bft)
29.05.2013 21:12 9,9 C 9,0 C 97 % 1002,9 hPa 0,2 l/m 0 min 2 min 0,0 UV-I 0 W/m 0,0 km/h (0 Bft)
29.05.2013 21:14 9,8 C 9,0 C 97 % 1003,0 hPa 0,0 l/m 0 min 2 min 0,0 UV-I 0 W/m 0,0 km/h (0 Bft)
29.05.2013 21:16 9,9 C 9,0 C 97 % 1003,0 hPa 0,0 l/m 0 min 2 min 0,0 UV-I 0 W/m 0,0 km/h (0 Bft)
29.05.2013 21:18 9,9 C 9,0 C 97 % 1003,0 hPa 0,0 l/m 0 min 0 min 0,0 UV-I 0 W/m 0,0 km/h (0 Bft)
29.05.2013 21:20 9,9 C 9,0 C 97 % 1003,0 hPa 0,0 l/m 0 min 0 min 0,0 UV-I 0 W/m 0,0 km/h (0 Bft)
29.05.2013 21:22 9,8 C 9,0 C 97 % 1003,0 hPa 0,0 l/m 0 min 2 min 0,0 UV-I 0 W/m 0,0 km/h (0 Bft)
29.05.2013 21:24 9,8 C 9,0 C 97 % 1003,0 hPa 0,0 l/m 0 min 0 min 0,0 UV-I 0 W/m 0,0 km/h (0 Bft)
29.05.2013 21:26 9,8 C 9,0 C 97 % 1003,0 hPa 0,0 l/m 0 min 0 min 0,0 UV-I 0 W/m 7,7 km/h (2 Bft)
29.05.2013 21:28 9,8 C 9,0 C 97 % 1003,1 hPa 0,0 l/m 0 min 2 min 0,0 UV-I 0 W/m 7,7 km/h (2 Bft)
29.05.2013 21:30 9,8 C 9,0 C 97 % 1003,1 hPa 0,0 l/m 0 min 2 min 0,0 UV-I 0 W/m 0,0 km/h (0 Bft)
29.05.2013 21:32 9,8 C 9,0 C 97 % 1003,1 hPa 0,0 l/m 0 min 2 min 0,0 UV-I 0 W/m 0,0 km/h (0 Bft)
29.05.2013 21:34 9,8 C 9,0 C 97 % 1003,1 hPa 0,0 l/m 0 min 2 min 0,0 UV-I 0 W/m 0,0 km/h (0 Bft)
29.05.2013 21:36 9,8 C 9,0 C 97 % 1003,2 hPa 0,0 l/m 0 min 0 min 0,0 UV-I 0 W/m 0,0 km/h (0 Bft)
29.05.2013 21:38 9,8 C 9,0 C 97 % 1003,1 hPa 0,0 l/m 0 min 0 min 0,0 UV-I 0 W/m 0,0 km/h (0 Bft)
29.05.2013 21:40 9,8 C 9,0 C 97 % 1003,2 hPa 0,0 l/m 0 min 2 min 0,0 UV-I 0 W/m 0,0 km/h (0 Bft)
29.05.2013 21:42 9,8 C 9,0 C 97 % 1003,3 hPa 0,0 l/m 0 min 0 min 0,0 UV-I 0 W/m 0,0 km/h (0 Bft)
29.05.2013 21:44 9,8 C 9,0 C 97 % 1003,2 hPa 0,0 l/m 0 min 0 min 0,0 UV-I 0 W/m 0,0 km/h (0 Bft)
29.05.2013 21:46 9,8 C 9,0 C 97 % 1003,3 hPa 0,0 l/m 0 min 0 min 0,0 UV-I 0 W/m 0,0 km/h (0 Bft)
29.05.2013 21:48 9,8 C 9,0 C 97 % 1003,3 hPa 0,0 l/m 0 min 0 min 0,0 UV-I 0 W/m 2,6 km/h (1 Bft)
29.05.2013 21:50 9,8 C 9,0 C 97 % 1003,3 hPa 0,0 l/m 0 min 0 min 0,0 UV-I 0 W/m 5,1 km/h (1 Bft)
29.05.2013 21:52 9,8 C 9,0 C 97 % 1003,3 hPa 0,0 l/m 0 min 2 min 0,0 UV-I 0 W/m 0,0 km/h (0 Bft)
29.05.2013 21:54 9,8 C 9,0 C 97 % 1003,3 hPa 0,0 l/m 0 min 2 min 0,0 UV-I 0 W/m 0,0 km/h (0 Bft)
29.05.2013 21:56 9,8 C 9,0 C 97 % 1003,3 hPa 0,0 l/m 0 min 2 min 0,0 UV-I 0 W/m 0,0 km/h (0 Bft)
29.05.2013 21:58 9,8 C 9,0 C 97 % 1003,4 hPa 0,0 l/m 0 min 2 min 0,0 UV-I 0 W/m 10,3 km/h (2 Bft)
29.05.2013 22:00 9,8 C 9,0 C 97 % 1003,3 hPa 0,0 l/m 0 min 2 min 0,0 UV-I 0 W/m 0,0 km/h (0 Bft)
29.05.2013 22:02 9,8 C 9,0 C 97 % 1003,4 hPa 0,0 l/m 0 min 2 min 0,0 UV-I 0 W/m 2,6 km/h (1 Bft)
29.05.2013 22:04 9,8 C 9,0 C 97 % 1003,5 hPa 0,0 l/m 0 min 2 min 0,0 UV-I 0 W/m 0,0 km/h (0 Bft)
29.05.2013 22:06 9,8 C 9,0 C 97 % 1003,5 hPa 0,0 l/m 0 min 2 min 0,0 UV-I 0 W/m 0,0 km/h (0 Bft)
29.05.2013 22:08 9,8 C 9,0 C 97 % 1003,5 hPa 0,0 l/m 0 min 2 min 0,0 UV-I 0 W/m 0,0 km/h (0 Bft)
29.05.2013 22:10 9,8 C 9,0 C 97 % 1003,5 hPa 0,0 l/m 0 min 2 min 0,0 UV-I 0 W/m 0,0 km/h (0 Bft)
29.05.2013 22:12 9,8 C 9,0 C 97 % 1003,5 hPa 0,0 l/m 0 min 2 min 0,0 UV-I 0 W/m 0,0 km/h (0 Bft)
29.05.2013 22:14 9,7 C 9,0 C 97 % 1003,5 hPa 0,0 l/m 0 min 2 min 0,0 UV-I 0 W/m 7,7 km/h (2 Bft)
29.05.2013 22:16 9,7 C 9,0 C 97 % 1003,4 hPa 0,0 l/m 0 min 2 min 0,0 UV-I 0 W/m 0,0 km/h (0 Bft)
29.05.2013 22:18 9,7 C 9,0 C 97 % 1003,5 hPa 0,0 l/m 0 min 2 min 0,0 UV-I 0 W/m 0,0 km/h (0 Bft)
29.05.2013 22:20 9,7 C 8,4 C 97 % 1003,5 hPa 0,0 l/m 0 min 2 min 0,0 UV-I 0 W/m 0,0 km/h (0 Bft)
29.05.2013 22:22 9,7 C 8,4 C 97 % 1003,5 hPa 0,0 l/m 0 min 2 min 0,0 UV-I 0 W/m 0,0 km/h (0 Bft)
29.05.2013 22:24 9,7 C 9,0 C 97 % 1003,5 hPa 0,0 l/m 0 min 2 min 0,0 UV-I 0 W/m 0,0 km/h (0 Bft)
29.05.2013 22:26 9,7 C 9,0 C 97 % 1003,5 hPa 0,0 l/m 0 min 2 min 0,0 UV-I 0 W/m 0,0 km/h (0 Bft)
29.05.2013 22:28 9,7 C 9,0 C 97 % 1003,5 hPa 0,0 l/m 0 min 2 min 0,0 UV-I 0 W/m 0,0 km/h (0 Bft)
29.05.2013 22:30 9,7 C 8,4 C 97 % 1003,5 hPa 0,0 l/m 0 min 2 min 0,0 UV-I 0 W/m 0,0 km/h (0 Bft)
29.05.2013 22:32 9,7 C 8,4 C 97 % 1003,5 hPa 0,0 l/m 0 min 2 min 0,0 UV-I 0 W/m 0,0 km/h (0 Bft)
29.05.2013 22:34 9,7 C 8,4 C 97 % 1003,5 hPa 0,0 l/m 0 min 2 min 0,0 UV-I 0 W/m 0,0 km/h (0 Bft)
29.05.2013 22:36 9,7 C 8,4 C 97 % 1003,5 hPa 0,0 l/m 0 min 2 min 0,0 UV-I 0 W/m 0,0 km/h (0 Bft)
29.05.2013 22:38 9,7 C 8,4 C 97 % 1003,5 hPa 0,0 l/m 0 min 2 min 0,0 UV-I 0 W/m 0,0 km/h (0 Bft)
29.05.2013 22:40 9,7 C 8,4 C 97 % 1003,6 hPa 0,0 l/m 0 min 2 min 0,0 UV-I 0 W/m 0,0 km/h (0 Bft)
29.05.2013 22:42 9,7 C 8,4 C 97 % 1003,6 hPa 0,0 l/m 0 min 2 min 0,0 UV-I 0 W/m 5,1 km/h (1 Bft)
29.05.2013 22:44 9,6 C 8,4 C 97 % 1003,5 hPa 0,0 l/m 0 min 2 min 0,0 UV-I 0 W/m 0,0 km/h (0 Bft)
29.05.2013 22:46 9,6 C 8,4 C 97 % 1003,5 hPa 0,0 l/m 0 min 2 min 0,0 UV-I 0 W/m 0,0 km/h (0 Bft)
29.05.2013 22:48 9,6 C 8,4 C 97 % 1003,5 hPa 0,0 l/m 0 min 2 min 0,0 UV-I 0 W/m 0,0 km/h (0 Bft)
29.05.2013 22:50 9,6 C 8,4 C 97 % 1003,6 hPa 0,0 l/m 0 min 2 min 0,0 UV-I 0 W/m 0,0 km/h (0 Bft)
29.05.2013 22:52 9,6 C 8,4 C 97 % 1003,5 hPa 0,0 l/m 0 min 2 min 0,0 UV-I 0 W/m 0,0 km/h (0 Bft)
29.05.2013 22:54 9,6 C 8,4 C 97 % 1003,5 hPa 0,0 l/m 0 min 2 min 0,0 UV-I 0 W/m 0,0 km/h (0 Bft)
29.05.2013 22:56 9,6 C 8,4 C 97 % 1003,6 hPa 0,0 l/m 0 min 2 min 0,0 UV-I 0 W/m 5,1 km/h (1 Bft)
29.05.2013 22:58 9,6 C 8,4 C 98 % 1003,6 hPa 0,0 l/m 0 min 2 min 0,0 UV-I 0 W/m 0,0 km/h (0 Bft)
29.05.2013 23:00 9,6 C 8,4 C 98 % 1003,7 hPa 0,0 l/m 0 min 2 min 0,0 UV-I 0 W/m 5,1 km/h (1 Bft)
29.05.2013 23:02 9,6 C 8,4 C 98 % 1003,6 hPa 0,0 l/m 0 min 2 min 0,0 UV-I 0 W/m 0,0 km/h (0 Bft)
29.05.2013 23:04 9,6 C 8,4 C 98 % 1003,6 hPa 0,0 l/m 0 min 2 min 0,0 UV-I 0 W/m 7,7 km/h (2 Bft)
29.05.2013 23:06 9,6 C 8,4 C 98 % 1003,6 hPa 0,0 l/m 0 min 2 min 0,0 UV-I 0 W/m 0,0 km/h (0 Bft)
29.05.2013 23:08 9,6 C 8,4 C 98 % 1003,6 hPa 0,0 l/m 0 min 2 min 0,0 UV-I 0 W/m 0,0 km/h (0 Bft)
29.05.2013 23:10 9,6 C 8,4 C 98 % 1003,6 hPa 0,0 l/m 0 min 2 min 0,0 UV-I 0 W/m 2,6 km/h (1 Bft)
29.05.2013 23:12 9,6 C 8,4 C 98 % 1003,7 hPa 0,0 l/m 0 min 2 min 0,0 UV-I 0 W/m 0,0 km/h (0 Bft)
29.05.2013 23:14 9,6 C 8,4 C 98 % 1003,7 hPa 0,2 l/m 0 min 2 min 0,0 UV-I 0 W/m 7,7 km/h (2 Bft)
29.05.2013 23:16 9,6 C 8,4 C 98 % 1003,6 hPa 0,0 l/m 0 min 2 min 0,0 UV-I 0 W/m 2,6 km/h (1 Bft)
29.05.2013 23:18 9,6 C 8,4 C 98 % 1003,6 hPa 0,0 l/m 0 min 2 min 0,0 UV-I 0 W/m 0,0 km/h (0 Bft)
29.05.2013 23:20 9,5 C 8,4 C 98 % 1003,6 hPa 0,0 l/m 0 min 2 min 0,0 UV-I 0 W/m 7,7 km/h (2 Bft)
29.05.2013 23:22 9,5 C 8,4 C 98 % 1003,6 hPa 0,0 l/m 0 min 2 min 0,0 UV-I 0 W/m 7,7 km/h (2 Bft)
29.05.2013 23:24 9,5 C 8,4 C 98 % 1003,6 hPa 0,0 l/m 0 min 2 min 0,0 UV-I 0 W/m 0,0 km/h (0 Bft)
29.05.2013 23:26 9,5 C 8,4 C 98 % 1003,6 hPa 0,0 l/m 0 min 2 min 0,0 UV-I 0 W/m 0,0 km/h (0 Bft)
29.05.2013 23:28 9,5 C 8,4 C 98 % 1003,7 hPa 0,0 l/m 0 min 2 min 0,0 UV-I 0 W/m 0,0 km/h (0 Bft)
29.05.2013 23:30 9,5 C 8,4 C 98 % 1003,7 hPa 0,0 l/m 0 min 2 min 0,0 UV-I 0 W/m 0,0 km/h (0 Bft)
29.05.2013 23:32 9,5 C 8,4 C 98 % 1003,7 hPa 0,0 l/m 0 min 2 min 0,0 UV-I 0 W/m 0,0 km/h (0 Bft)
29.05.2013 23:34 9,4 C 8,4 C 98 % 1003,7 hPa 0,0 l/m 0 min 2 min 0,0 UV-I 0 W/m 0,0 km/h (0 Bft)
29.05.2013 23:36 9,4 C 8,4 C 98 % 1003,6 hPa 0,2 l/m 0 min 2 min 0,0 UV-I 0 W/m 0,0 km/h (0 Bft)
29.05.2013 23:38 9,4 C 8,4 C 98 % 1003,7 hPa 0,0 l/m 0 min 2 min 0,0 UV-I 0 W/m 0,0 km/h (0 Bft)
29.05.2013 23:40 9,4 C 8,4 C 98 % 1003,7 hPa 0,0 l/m 0 min 2 min 0,0 UV-I 0 W/m 0,0 km/h (0 Bft)
29.05.2013 23:42 9,4 C 8,4 C 98 % 1003,7 hPa 0,0 l/m 0 min 2 min 0,0 UV-I 0 W/m 0,0 km/h (0 Bft)
29.05.2013 23:44 9,4 C 8,4 C 98 % 1003,8 hPa 0,0 l/m 0 min 2 min 0,0 UV-I 0 W/m 0,0 km/h (0 Bft)
29.05.2013 23:46 9,4 C 8,4 C 98 % 1003,8 hPa 0,0 l/m 0 min 2 min 0,0 UV-I 0 W/m 2,6 km/h (1 Bft)
29.05.2013 23:48 9,4 C 8,4 C 98 % 1003,8 hPa 0,0 l/m 0 min 2 min 0,0 UV-I 0 W/m 5,1 km/h (1 Bft)
29.05.2013 23:50 9,4 C 8,4 C 98 % 1003,7 hPa 0,2 l/m 0 min 2 min 0,0 UV-I 0 W/m 0,0 km/h (0 Bft)
29.05.2013 23:52 9,4 C 8,4 C 98 % 1003,8 hPa 0,0 l/m 0 min 2 min 0,0 UV-I 0 W/m 0,0 km/h (0 Bft)
29.05.2013 23:54 9,4 C 8,4 C 98 % 1003,8 hPa 0,0 l/m 0 min 2 min 0,0 UV-I 0 W/m 0,0 km/h (0 Bft)
29.05.2013 23:56 9,4 C 8,4 C 98 % 1003,9 hPa 0,0 l/m 0 min 2 min 0,0 UV-I 0 W/m 0,0 km/h (0 Bft)
29.05.2013 23:58 9,4 C 8,4 C 98 % 1003,8 hPa 0,0 l/m 0 min 2 min 0,0 UV-I 0 W/m 5,1 km/h (1 Bft)
_ Min-Zeit 10:26 09:30 00:00 06:48 - - - - - 00:00
Minimum _ 9,2 C 8,4 C 85 % 999,3 hPa - - - - - 0,0 km/h (0 Bft)
_ Max-Zeit 00:00 00:00 22:58 23:56 07:30 00:00 00:00 11:16 11:16 11:42
Maximum _ 14,6 C 12,9 C 98 % 1003,9 hPa 0,2 l/m 0 min 2 min 1,1 UV-I 316 W/m 25,7 km/h
S-SW (4 Bft)
Durchschnitt _ 10,6 C 9,7 C 95 % 1000,9 hPa #11,0 l/m #0 min. #16:44 h 0,8 UV-I 66 W/m 7,3 km/h (2 Bft)
© 2013 W. Hausmann